Time,TemperatureF,DewpointF,PressureIn,WindDirection,WindDirectionDegrees,WindSpeedMPH,WindSpeedGustMPH,Humidity,HourlyPrecipIn,Conditions,Clouds,dailyrainin,SoftwareType,DateUTC
2013-04-26 00:00:00,57.3,37.8,29.97,SSE,164,4.0,6.0,48,0.00,,CLR,0.00,VWS V13.01,2013-04-26 04:00:00,
2013-04-26 00:01:00,57.3,37.8,29.97,SSE,164,4.0,10.0,48,0.00,,CLR,0.00,VWS V13.01,2013-04-26 04:01:00,
2013-04-26 00:06:00,57.2,38.2,29.97,SSE,154,0.0,8.0,49,0.00,,CLR,0.00,VWS V13.01,2013-04-26 04:06:00,
2013-04-26 00:07:00,57.2,38.2,29.97,SSE,164,6.0,8.0,49,0.00,,CLR,0.00,VWS V13.01,2013-04-26 04:07:00,
2013-04-26 00:11:00,57.0,38.0,29.97,SSE,161,6.0,12.0,49,0.00,,CLR,0.00,VWS V13.01,2013-04-26 04:11:00,
2013-04-26 00:12:00,56.9,38.0,29.97,SSE,161,0.0,12.0,49,0.00,,CLR,0.00,VWS V13.01,2013-04-26 04:12:00,
2013-04-26 00:16:00,56.7,38.3,29.97,SSE,162,6.0,6.0,50,0.00,,CLR,0.00,VWS V13.01,2013-04-26 04:16:00,
2013-04-26 00:17:00,56.7,38.3,29.97,South,176,4.0,10.0,50,0.00,,CLR,0.00,VWS V13.01,2013-04-26 04:17:00,
2013-04-26 00:21:00,56.5,38.1,29.97,South,179,6.0,6.0,50,0.00,,CLR,0.00,VWS V13.01,2013-04-26 04:21:00,
2013-04-26 00:22:00,56.5,38.6,29.97,South,179,0.0,6.0,51,0.00,,CLR,0.00,VWS V13.01,2013-04-26 04:22:00,
2013-04-26 00:26:00,56.3,38.4,29.97,SSE,161,0.0,4.0,51,0.00,,CLR,0.00,VWS V13.01,2013-04-26 04:26:00,
2013-04-26 00:27:00,56.3,38.4,29.97,SSE,161,4.0,4.0,51,0.00,,CLR,0.00,VWS V13.01,2013-04-26 04:27:00,
2013-04-26 00:28:00,56.3,38.4,29.97,SSE,162,0.0,4.0,51,0.00,,CLR,0.00,VWS V13.01,2013-04-26 04:28:00,
2013-04-26 00:30:00,56.2,38.8,29.97,South,172,0.0,10.0,52,0.00,,SCT055,0.00,VWS V14.01,2013-04-26 04:30:00,
2013-04-26 00:31:00,56.2,38.3,29.97,South,172,0.0,10.0,51,0.00,,CLR,0.00,VWS V13.01,2013-04-26 04:31:00,
2013-04-26 00:32:00,56.0,38.6,29.97,South,174,0.0,0.0,52,0.00,,CLR,0.00,VWS V13.01,2013-04-26 04:32:00,
2013-04-26 00:33:00,56.0,38.6,29.97,South,174,0.0,2.0,52,0.00,,CLR,0.00,VWS V13.01,2013-04-26 04:33:00,
2013-04-26 00:36:00,55.9,38.5,29.97,South,175,12.0,12.0,52,0.00,,CLR,0.00,VWS V13.01,2013-04-26 04:36:00,
2013-04-26 00:37:00,55.9,38.5,29.97,South,172,0.0,16.0,52,0.00,,CLR,0.00,VWS V13.01,2013-04-26 04:37:00,
2013-04-26 00:38:00,55.9,38.5,29.97,South,172,0.0,16.0,52,0.00,,CLR,0.00,VWS V13.01,2013-04-26 04:38:00,
2013-04-26 00:41:00,55.7,38.4,29.97,SSE,167,2.0,14.0,52,0.00,,CLR,0.00,VWS V13.01,2013-04-26 04:41:00,
2013-04-26 00:42:00,55.6,38.3,29.97,South,185,10.0,10.0,52,0.00,,CLR,0.00,VWS V13.01,2013-04-26 04:42:00,
2013-04-26 00:43:00,55.6,38.3,29.97,SE,136,12.0,12.0,52,0.00,,CLR,0.00,VWS V13.01,2013-04-26 04:43:00,
2013-04-26 00:46:00,55.4,38.6,29.97,South,169,4.0,14.0,53,0.00,,CLR,0.00,VWS V13.01,2013-04-26 04:46:00,
2013-04-26 00:48:00,55.4,38.6,29.97,SSE,168,4.0,14.0,53,0.00,,CLR,0.00,VWS V13.01,2013-04-26 04:48:00,
2013-04-26 00:51:00,55.3,38.5,29.97,South,174,0.0,14.0,53,0.00,,CLR,0.00,VWS V13.01,2013-04-26 04:51:00,
2013-04-26 00:53:00,55.1,38.3,29.97,South,174,0.0,4.0,53,0.00,,CLR,0.00,VWS V13.01,2013-04-26 04:53:00,
2013-04-26 00:54:00,55.1,38.3,29.97,South,174,0.0,10.0,53,0.00,,CLR,0.00,VWS V13.01,2013-04-26 04:54:00,
2013-04-26 00:57:00,55.0,38.2,29.97,SSE,162,14.0,16.0,53,0.00,,CLR,0.00,VWS V13.01,2013-04-26 04:57:00,
2013-04-26 00:58:00,55.0,38.2,29.97,SSE,161,0.0,16.0,53,0.00,,CLR,0.00,VWS V13.01,2013-04-26 04:58:00,
2013-04-26 00:59:00,55.0,38.2,29.97,South,178,6.0,14.0,53,0.00,,CLR,0.00,VWS V13.01,2013-04-26 04:59:00,
2013-04-26 01:00:00,54.8,38.5,29.97,SSE,168,2.0,10.0,54,0.00,,SCT055,0.00,VWS V14.01,2013-04-26 05:00:00,
2013-04-26 01:02:00,54.8,38.5,29.97,SSE,168,0.0,10.0,54,0.00,,CLR,0.00,VWS V13.01,2013-04-26 05:02:00,
2013-04-26 01:03:00,54.8,38.5,29.97,South,178,2.0,14.0,54,0.00,,CLR,0.00,VWS V13.01,2013-04-26 05:03:00,
2013-04-26 01:04:00,54.8,38.5,29.97,SSW,200,6.0,14.0,54,0.00,,CLR,0.00,VWS V13.01,2013-04-26 05:04:00,
2013-04-26 01:07:00,54.7,38.4,29.97,South,171,6.0,14.0,54,0.00,,CLR,0.00,VWS V13.01,2013-04-26 05:07:00,
2013-04-26 01:09:00,54.7,38.4,29.97,South,178,8.0,16.0,54,0.00,,CLR,0.00,VWS V13.01,2013-04-26 05:09:00,
2013-04-26 01:10:00,54.7,38.4,29.97,SSE,155,4.0,16.0,54,0.00,,CLR,0.00,VWS V13.01,2013-04-26 05:10:00,
2013-04-26 01:12:00,54.7,38.4,29.97,SSE,168,10.0,22.0,54,0.00,,CLR,0.00,VWS V13.01,2013-04-26 05:12:00,
2013-04-26 01:14:00,54.5,38.2,29.97,SE,134,0.0,20.0,54,0.00,,CLR,0.00,VWS V13.01,2013-04-26 05:14:00,
2013-04-26 01:15:00,54.5,38.2,29.97,SSE,168,12.0,12.0,54,0.00,,CLR,0.00,VWS V13.01,2013-04-26 05:15:00,
2013-04-26 01:17:00,54.5,38.2,29.96,South,186,14.0,14.0,54,0.00,,CLR,0.00,VWS V13.01,2013-04-26 05:17:00,
2013-04-26 01:19:00,54.5,38.2,29.96,South,174,8.0,16.0,54,0.00,,CLR,0.00,VWS V13.01,2013-04-26 05:19:00,
2013-04-26 01:20:00,54.5,38.2,29.96,SSE,167,8.0,12.0,54,0.00,,CLR,0.00,VWS V13.01,2013-04-26 05:20:00,
2013-04-26 01:23:00,54.5,38.2,29.96,South,171,2.0,12.0,54,0.00,,CLR,0.00,VWS V13.01,2013-04-26 05:23:00,
2013-04-26 01:25:00,54.5,38.2,29.96,SSE,158,4.0,16.0,54,0.00,,CLR,0.00,VWS V13.01,2013-04-26 05:25:00,
2013-04-26 01:28:00,54.5,38.2,29.96,SSW,205,12.0,20.0,54,0.00,,CLR,0.00,VWS V13.01,2013-04-26 05:28:00,
2013-04-26 01:30:00,54.4,38.1,29.96,SSE,157,14.0,16.0,54,0.00,,CLR,0.00,VWS V13.01,2013-04-26 05:30:00,
2013-04-26 01:31:00,54.4,38.1,29.97,SSE,157,6.0,14.0,54,0.00,,CLR,0.00,VWS V13.01,2013-04-26 05:31:00,
2013-04-26 01:33:00,54.4,38.1,29.97,SSE,164,0.0,6.0,54,0.00,,CLR,0.00,VWS V13.01,2013-04-26 05:33:00,
2013-04-26 01:35:00,54.4,38.1,29.97,SSE,164,4.0,24.0,54,0.00,,CLR,0.00,VWS V13.01,2013-04-26 05:35:00,
2013-04-26 01:36:00,54.2,37.9,29.97,SSE,162,4.0,24.0,54,0.00,,CLR,0.00,VWS V13.01,2013-04-26 05:36:00,
2013-04-26 01:38:00,54.2,37.9,29.97,South,175,10.0,12.0,54,0.00,,CLR,0.00,VWS V13.01,2013-04-26 05:38:00,
2013-04-26 01:40:00,54.2,37.9,29.97,SSE,155,2.0,14.0,54,0.00,,CLR,0.00,VWS V13.01,2013-04-26 05:40:00,
2013-04-26 01:41:00,54.1,37.8,29.97,SSE,155,0.0,10.0,54,0.00,,CLR,0.00,VWS V13.01,2013-04-26 05:41:00,
2013-04-26 01:43:00,54.1,37.8,29.97,SSE,164,2.0,16.0,54,0.00,,CLR,0.00,VWS V13.01,2013-04-26 05:43:00,
2013-04-26 01:46:00,53.9,37.7,29.97,SSE,165,0.0,14.0,54,0.00,,CLR,0.00,VWS V13.01,2013-04-26 05:46:00,
2013-04-26 01:50:00,53.8,37.6,29.97,SSE,155,0.0,16.0,54,0.00,,CLR,0.00,VWS V13.01,2013-04-26 05:50:00,
2013-04-26 01:51:00,53.8,37.6,29.97,South,179,6.0,16.0,54,0.00,,CLR,0.00,VWS V13.01,2013-04-26 05:51:00,
2013-04-26 01:52:00,53.8,37.6,29.97,South,181,2.0,14.0,54,0.00,,CLR,0.00,VWS V13.01,2013-04-26 05:52:00,
2013-04-26 01:55:00,53.8,37.1,29.97,South,182,10.0,26.0,53,0.00,,CLR,0.00,VWS V13.01,2013-04-26 05:55:00,
2013-04-26 01:56:00,53.8,37.6,29.97,SE,143,4.0,26.0,54,0.00,,CLR,0.00,VWS V13.01,2013-04-26 05:56:00,
2013-04-26 01:57:00,53.6,36.9,29.97,SE,141,0.0,10.0,53,0.00,,CLR,0.00,VWS V13.01,2013-04-26 05:57:00,
2013-04-26 02:00:00,53.6,37.4,29.97,SSE,160,4.0,14.0,54,0.00,,CLR,0.00,VWS V13.01,2013-04-26 06:00:00,
2013-04-26 02:01:00,53.6,36.9,29.97,South,179,12.0,22.0,53,0.00,,CLR,0.00,VWS V13.01,2013-04-26 06:01:00,
2013-04-26 02:02:00,53.6,36.9,29.97,SSE,158,2.0,22.0,53,0.00,,CLR,0.00,VWS V13.01,2013-04-26 06:02:00,
2013-04-26 02:06:00,53.6,36.9,29.97,SSE,151,16.0,20.0,53,0.00,,CLR,0.00,VWS V13.01,2013-04-26 06:06:00,
2013-04-26 02:07:00,53.6,36.9,29.97,South,176,6.0,20.0,53,0.00,,CLR,0.00,VWS V13.01,2013-04-26 06:07:00,
2013-04-26 02:11:00,53.6,37.4,29.97,South,169,2.0,10.0,54,0.00,,CLR,0.00,VWS V13.01,2013-04-26 06:11:00,
2013-04-26 02:12:00,53.6,37.4,29.97,SSW,196,10.0,12.0,54,0.00,,CLR,0.00,VWS V13.01,2013-04-26 06:12:00,
2013-04-26 02:16:00,53.5,37.3,29.96,SSE,168,12.0,16.0,54,0.00,,CLR,0.00,VWS V13.01,2013-04-26 06:16:00,
2013-04-26 02:17:00,53.5,37.3,29.96,South,169,2.0,14.0,54,0.00,,CLR,0.00,VWS V13.01,2013-04-26 06:17:00,
2013-04-26 02:21:00,53.5,37.3,29.96,SSE,160,4.0,16.0,54,0.00,,CLR,0.00,VWS V13.01,2013-04-26 06:21:00,
2013-04-26 02:22:00,53.5,37.3,29.96,SSE,167,4.0,16.0,54,0.00,,CLR,0.00,VWS V13.01,2013-04-26 06:22:00,
2013-04-26 02:27:00,53.3,37.1,29.96,South,176,6.0,24.0,54,0.00,,CLR,0.00,VWS V13.01,2013-04-26 06:27:00,
2013-04-26 02:28:00,53.2,37.0,29.96,South,189,8.0,24.0,54,0.00,,CLR,0.00,VWS V13.01,2013-04-26 06:28:00,
2013-04-26 02:30:00,53.2,37.0,29.96,South,185,12.0,26.0,54,0.00,,SCT055,0.00,VWS V14.01,2013-04-26 06:30:00,
2013-04-26 02:32:00,53.2,37.0,29.96,South,171,6.0,20.0,54,0.00,,CLR,0.00,VWS V13.01,2013-04-26 06:32:00,
2013-04-26 02:33:00,53.2,37.0,29.96,SE,145,6.0,20.0,54,0.00,,CLR,0.00,VWS V13.01,2013-04-26 06:33:00,
2013-04-26 02:37:00,53.1,37.4,29.96,South,185,4.0,12.0,55,0.00,,CLR,0.00,VWS V13.01,2013-04-26 06:37:00,
2013-04-26 02:38:00,53.1,37.4,29.96,South,179,10.0,12.0,55,0.00,,CLR,0.00,VWS V13.01,2013-04-26 06:38:00,
2013-04-26 02:39:00,53.1,37.4,29.96,South,181,4.0,20.0,55,0.00,,CLR,0.00,VWS V13.01,2013-04-26 06:39:00,
2013-04-26 02:42:00,52.9,37.2,29.96,SSE,167,4.0,24.0,55,0.00,,CLR,0.00,VWS V13.01,2013-04-26 06:42:00,
2013-04-26 02:43:00,52.9,37.2,29.96,South,181,8.0,16.0,55,0.00,,CLR,0.00,VWS V13.01,2013-04-26 06:43:00,
2013-04-26 02:44:00,52.9,37.2,29.96,South,172,4.0,16.0,55,0.00,,CLR,0.00,VWS V13.01,2013-04-26 06:44:00,
2013-04-26 02:48:00,52.8,37.1,29.96,SSE,164,4.0,8.0,55,0.00,,CLR,0.00,VWS V13.01,2013-04-26 06:48:00,
2013-04-26 02:49:00,52.8,37.1,29.96,SSE,167,0.0,10.0,55,0.00,,CLR,0.00,VWS V13.01,2013-04-26 06:49:00,
2013-04-26 02:50:00,52.8,37.5,29.96,SSW,195,6.0,10.0,56,0.00,,CLR,0.00,VWS V13.01,2013-04-26 06:50:00,
2013-04-26 02:53:00,52.6,37.4,29.96,South,179,0.0,10.0,56,0.00,,CLR,0.00,VWS V13.01,2013-04-26 06:53:00,
2013-04-26 02:54:00,52.6,37.4,29.96,South,172,10.0,10.0,56,0.00,,CLR,0.00,VWS V13.01,2013-04-26 06:54:00,
2013-04-26 02:55:00,52.5,37.3,29.96,South,172,4.0,12.0,56,0.00,,CLR,0.00,VWS V13.01,2013-04-26 06:55:00,
2013-04-26 02:58:00,52.5,37.7,29.96,SSE,158,4.0,14.0,57,0.00,,CLR,0.00,VWS V13.01,2013-04-26 06:58:00,
2013-04-26 02:59:00,52.3,37.5,29.96,SSE,158,6.0,20.0,57,0.00,,CLR,0.00,VWS V13.01,2013-04-26 06:59:00,
2013-04-26 03:00:00,52.3,37.5,29.96,SSE,165,4.0,24.0,57,0.00,,CLR,0.00,VWS V13.01,2013-04-26 07:00:00,
2013-04-26 03:03:00,52.2,37.4,29.96,ESE,119,2.0,14.0,57,0.00,,CLR,0.00,VWS V13.01,2013-04-26 07:03:00,
2013-04-26 03:04:00,52.2,37.4,29.96,South,175,6.0,14.0,57,0.00,,CLR,0.00,VWS V13.01,2013-04-26 07:04:00,
2013-04-26 03:05:00,52.2,37.4,29.96,South,176,12.0,22.0,57,0.00,,CLR,0.00,VWS V13.01,2013-04-26 07:05:00,
2013-04-26 03:06:00,52.2,37.4,29.96,SSE,165,0.0,22.0,57,0.00,,CLR,0.00,VWS V13.01,2013-04-26 07:06:00,
2013-04-26 03:09:00,52.0,37.2,29.96,South,169,2.0,14.0,57,0.00,,CLR,0.00,VWS V13.01,2013-04-26 07:09:00,
2013-04-26 03:10:00,52.0,37.7,29.96,South,184,14.0,22.0,58,0.00,,CLR,0.00,VWS V13.01,2013-04-26 07:10:00,
2013-04-26 03:12:00,52.0,37.7,29.96,SSE,168,8.0,22.0,58,0.00,,CLR,0.00,VWS V13.01,2013-04-26 07:12:00,
2013-04-26 03:14:00,52.0,37.7,29.96,South,169,10.0,16.0,58,0.00,,CLR,0.00,VWS V13.01,2013-04-26 07:14:00,
2013-04-26 03:16:00,52.0,37.7,29.95,SSE,154,4.0,12.0,58,0.00,,CLR,0.00,VWS V13.01,2013-04-26 07:16:00,
2013-04-26 03:17:00,52.0,37.7,29.95,South,178,2.0,12.0,58,0.00,,CLR,0.00,VWS V13.01,2013-04-26 07:17:00,
2013-04-26 03:19:00,52.0,37.7,29.95,South,179,20.0,24.0,58,0.00,,CLR,0.00,VWS V13.01,2013-04-26 07:19:00,
2013-04-26 03:20:00,52.0,37.7,29.95,South,178,8.0,24.0,58,0.00,,CLR,0.00,VWS V13.01,2013-04-26 07:20:00,
2013-04-26 03:21:00,52.0,37.2,29.95,SE,143,4.0,24.0,57,0.00,,CLR,0.00,VWS V13.01,2013-04-26 07:21:00,
2013-04-26 03:23:00,52.0,37.2,29.95,SSE,164,2.0,22.0,57,0.00,,CLR,0.00,VWS V13.01,2013-04-26 07:23:00,
2013-04-26 03:24:00,52.0,37.2,29.95,South,172,4.0,22.0,57,0.00,,CLR,0.00,VWS V13.01,2013-04-26 07:24:00,
2013-04-26 03:25:00,52.0,37.2,29.95,SSE,167,6.0,20.0,57,0.00,,CLR,0.00,VWS V13.01,2013-04-26 07:25:00,
2013-04-26 03:26:00,52.0,37.2,29.95,South,169,4.0,12.0,57,0.00,,CLR,0.00,VWS V13.01,2013-04-26 07:26:00,
2013-04-26 03:27:00,52.0,37.2,29.95,South,181,12.0,18.0,57,0.00,,CLR,0.00,VWS V13.01,2013-04-26 07:27:00,
2013-04-26 03:28:00,52.0,37.2,29.95,South,171,4.0,18.0,57,0.00,,CLR,0.00,VWS V13.01,2013-04-26 07:28:00,
2013-04-26 03:29:00,52.2,37.4,29.95,SSE,160,30.0,30.0,57,0.00,,CLR,0.00,VWS V13.01,2013-04-26 07:29:00,
2013-04-26 03:30:00,52.2,37.0,29.95,SSE,168,4.0,30.0,56,0.00,,CLR,0.00,VWS V13.01,2013-04-26 07:30:00,
2013-04-26 03:32:00,52.2,37.0,29.95,SSE,167,0.0,10.0,56,0.00,,CLR,0.00,VWS V13.01,2013-04-26 07:32:00,
2013-04-26 03:33:00,52.2,37.0,29.95,SE,143,4.0,24.0,56,0.00,,CLR,0.00,VWS V13.01,2013-04-26 07:33:00,
2013-04-26 03:35:00,52.3,37.1,29.95,South,181,6.0,14.0,56,0.00,,CLR,0.00,VWS V13.01,2013-04-26 07:35:00,
2013-04-26 03:37:00,52.3,37.1,29.95,SSE,161,6.0,24.0,56,0.00,,CLR,0.00,VWS V13.01,2013-04-26 07:37:00,
2013-04-26 03:38:00,52.3,37.1,29.95,South,188,20.0,20.0,56,0.00,,CLR,0.00,VWS V13.01,2013-04-26 07:38:00,
2013-04-26 03:39:00,52.3,37.1,29.95,South,174,6.0,20.0,56,0.00,,CLR,0.00,VWS V13.01,2013-04-26 07:39:00,
2013-04-26 03:41:00,52.5,36.8,29.95,SSW,200,14.0,16.0,55,0.00,,CLR,0.00,VWS V13.01,2013-04-26 07:41:00,
2013-04-26 03:43:00,52.5,36.8,29.95,SSE,161,0.0,14.0,55,0.00,,CLR,0.00,VWS V13.01,2013-04-26 07:43:00,
2013-04-26 03:44:00,52.6,36.9,29.95,SSE,155,12.0,20.0,55,0.00,,CLR,0.00,VWS V13.01,2013-04-26 07:44:00,
2013-04-26 03:46:00,52.6,36.9,29.94,South,184,6.0,18.0,55,0.00,,CLR,0.00,VWS V13.01,2013-04-26 07:46:00,
2013-04-26 03:48:00,52.8,36.6,29.94,SSE,154,4.0,26.0,54,0.00,,CLR,0.00,VWS V13.01,2013-04-26 07:48:00,
2013-04-26 03:49:00,52.9,36.7,29.94,SSE,158,2.0,14.0,54,0.00,,CLR,0.00,VWS V13.01,2013-04-26 07:49:00,
2013-04-26 03:51:00,52.9,36.7,29.94,SSE,157,6.0,14.0,54,0.00,,CLR,0.00,VWS V13.01,2013-04-26 07:51:00,
2013-04-26 03:53:00,53.1,36.9,29.94,South,178,10.0,14.0,54,0.00,,CLR,0.00,VWS V13.01,2013-04-26 07:53:00,
2013-04-26 03:54:00,53.1,36.4,29.94,SE,144,6.0,14.0,53,0.00,,CLR,0.00,VWS V13.01,2013-04-26 07:54:00,
2013-04-26 03:56:00,53.2,36.5,29.94,SSW,198,4.0,20.0,53,0.00,,CLR,0.00,VWS V13.01,2013-04-26 07:56:00,
2013-04-26 03:58:00,53.3,36.1,29.94,South,172,6.0,28.0,52,0.00,,CLR,0.00,VWS V13.01,2013-04-26 07:58:00,
2013-04-26 03:59:00,53.3,36.1,29.94,South,175,12.0,16.0,52,0.00,,CLR,0.00,VWS V13.01,2013-04-26 07:59:00,
2013-04-26 04:00:00,53.3,36.1,29.94,SSE,157,0.0,14.0,52,0.00,,CLR,0.00,VWS V13.01,2013-04-26 08:00:00,
2013-04-26 04:01:00,53.5,36.3,29.93,SE,131,8.0,16.0,52,0.00,,CLR,0.00,VWS V13.01,2013-04-26 08:01:00,
2013-04-26 04:02:00,53.5,36.3,29.93,South,184,10.0,12.0,52,0.00,,CLR,0.00,VWS V13.01,2013-04-26 08:02:00,
2013-04-26 04:03:00,53.5,36.3,29.93,SSE,147,8.0,12.0,52,0.00,,CLR,0.00,VWS V13.01,2013-04-26 08:03:00,
2013-04-26 04:04:00,53.5,36.3,29.93,SSE,164,12.0,12.0,52,0.00,,CLR,0.00,VWS V13.01,2013-04-26 08:04:00,
2013-04-26 04:05:00,53.6,36.4,29.93,SE,141,10.0,12.0,52,0.00,,CLR,0.00,VWS V13.01,2013-04-26 08:05:00,
2013-04-26 04:07:00,53.6,36.4,29.93,South,179,22.0,22.0,52,0.00,,CLR,0.00,VWS V13.01,2013-04-26 08:07:00,
2013-04-26 04:09:00,53.8,36.1,29.93,South,171,12.0,22.0,51,0.00,,CLR,0.00,VWS V13.01,2013-04-26 08:09:00,
2013-04-26 04:10:00,53.9,36.2,29.93,South,174,6.0,18.0,51,0.00,,CLR,0.00,VWS V13.01,2013-04-26 08:10:00,
2013-04-26 04:12:00,53.9,36.2,29.93,South,172,4.0,14.0,51,0.00,,CLR,0.00,VWS V13.01,2013-04-26 08:12:00,
2013-04-26 04:13:00,53.9,36.2,29.93,SSE,168,8.0,22.0,51,0.00,,CLR,0.00,VWS V13.01,2013-04-26 08:13:00,
2013-04-26 04:14:00,54.1,35.9,29.93,SSE,160,4.0,22.0,50,0.00,,CLR,0.00,VWS V13.01,2013-04-26 08:14:00,
2013-04-26 04:15:00,54.1,35.9,29.93,SSE,158,12.0,24.0,50,0.00,,CLR,0.00,VWS V13.01,2013-04-26 08:15:00,
2013-04-26 04:17:00,54.2,36.0,29.93,South,178,4.0,24.0,50,0.00,,CLR,0.00,VWS V13.01,2013-04-26 08:17:00,
2013-04-26 04:18:00,54.2,36.0,29.93,South,181,0.0,26.0,50,0.00,,CLR,0.00,VWS V13.01,2013-04-26 08:18:00,
2013-04-26 04:19:00,54.2,36.0,29.93,South,176,16.0,26.0,50,0.00,,CLR,0.00,VWS V13.01,2013-04-26 08:19:00,
2013-04-26 04:20:00,54.2,35.5,29.93,South,176,4.0,22.0,49,0.00,,CLR,0.00,VWS V13.01,2013-04-26 08:20:00,
2013-04-26 04:22:00,54.4,35.7,29.93,South,169,12.0,14.0,49,0.00,,CLR,0.00,VWS V13.01,2013-04-26 08:22:00,
2013-04-26 04:24:00,54.4,35.7,29.93,SSE,165,4.0,12.0,49,0.00,,CLR,0.00,VWS V13.01,2013-04-26 08:24:00,
2013-04-26 04:25:00,54.4,35.7,29.93,SSE,150,10.0,14.0,49,0.00,,CLR,0.00,VWS V13.01,2013-04-26 08:25:00,
2013-04-26 04:27:00,54.5,35.8,29.93,SSE,154,10.0,20.0,49,0.00,,CLR,0.00,VWS V13.01,2013-04-26 08:27:00,
2013-04-26 04:29:00,54.5,35.8,29.93,SSE,157,0.0,12.0,49,0.00,,CLR,0.00,VWS V13.01,2013-04-26 08:29:00,
2013-04-26 04:30:00,54.5,35.8,29.93,SSE,165,10.0,12.0,49,0.00,,CLR,0.00,VWS V13.01,2013-04-26 08:30:00,
2013-04-26 04:31:00,54.5,35.8,29.92,SSE,152,4.0,12.0,49,0.00,,CLR,0.00,VWS V13.01,2013-04-26 08:31:00,
2013-04-26 04:32:00,54.5,35.8,29.92,South,182,14.0,20.0,49,0.00,,CLR,0.00,VWS V13.01,2013-04-26 08:32:00,
2013-04-26 04:35:00,54.5,35.8,29.92,SSE,160,4.0,16.0,49,0.00,,CLR,0.00,VWS V13.01,2013-04-26 08:35:00,
2013-04-26 04:36:00,54.5,35.8,29.92,South,169,14.0,16.0,49,0.00,,CLR,0.00,VWS V13.01,2013-04-26 08:36:00,
2013-04-26 04:38:00,54.5,35.8,29.92,SSE,147,14.0,24.0,49,0.00,,BKN120,0.00,VWS V13.01,2013-04-26 08:38:00,
2013-04-26 04:40:00,54.5,35.8,29.92,South,189,0.0,36.0,49,0.00,,BKN120,0.00,VWS V13.01,2013-04-26 08:40:00,
2013-04-26 04:42:00,54.5,35.8,29.92,SSE,165,8.0,16.0,49,0.00,,BKN120,0.00,VWS V13.01,2013-04-26 08:42:00,
2013-04-26 04:44:00,54.7,35.9,29.92,SSE,162,4.0,14.0,49,0.00,,BKN120,0.00,VWS V13.01,2013-04-26 08:44:00,
2013-04-26 04:45:00,54.7,35.9,29.92,SE,144,20.0,20.0,49,0.00,,BKN120,0.00,VWS V13.01,2013-04-26 08:45:00,
2013-04-26 04:46:00,54.5,35.8,29.92,South,189,14.0,24.0,49,0.00,,BKN120,0.00,VWS V13.01,2013-04-26 08:46:00,
2013-04-26 04:47:00,54.5,35.8,29.92,South,182,6.0,24.0,49,0.00,,BKN120,0.00,VWS V13.01,2013-04-26 08:47:00,
2013-04-26 04:49:00,54.7,35.9,29.92,SSE,155,10.0,38.0,49,0.00,,BKN120,0.00,VWS V13.01,2013-04-26 08:49:00,
2013-04-26 04:50:00,54.7,35.9,29.92,SSE,155,24.0,32.0,49,0.00,,BKN120,0.00,VWS V13.01,2013-04-26 08:50:00,
2013-04-26 04:51:00,54.7,35.9,29.92,SE,138,2.0,32.0,49,0.00,,BKN120,0.00,VWS V13.01,2013-04-26 08:51:00,
2013-04-26 04:52:00,54.7,35.9,29.92,SSE,157,0.0,32.0,49,0.00,,BKN120,0.00,VWS V13.01,2013-04-26 08:52:00,
2013-04-26 04:54:00,54.7,35.9,29.92,SSE,168,10.0,12.0,49,0.00,,BKN120,0.00,VWS V13.01,2013-04-26 08:54:00,
2013-04-26 04:56:00,54.7,35.9,29.92,South,178,22.0,22.0,49,0.00,,BKN120,0.00,VWS V13.01,2013-04-26 08:56:00,
2013-04-26 04:57:00,54.7,35.9,29.92,SSE,148,6.0,28.0,49,0.00,,BKN120,0.00,VWS V13.01,2013-04-26 08:57:00,
2013-04-26 04:59:00,54.7,35.9,29.92,SSE,165,4.0,26.0,49,0.00,,BKN120,0.00,VWS V13.01,2013-04-26 08:59:00,
2013-04-26 05:00:00,54.7,35.9,29.91,SSW,200,12.0,22.0,49,0.00,,SCT055,0.00,VWS V14.01,2013-04-26 09:00:00,
2013-04-26 05:01:00,54.7,35.9,29.91,SSE,152,6.0,16.0,49,0.00,,BKN120,0.00,VWS V13.01,2013-04-26 09:01:00,
2013-04-26 05:02:00,54.7,35.9,29.91,SW,215,14.0,22.0,49,0.00,,BKN120,0.00,VWS V13.01,2013-04-26 09:02:00,
2013-04-26 05:04:00,54.5,35.8,29.91,SSW,195,8.0,16.0,49,0.00,,BKN120,0.00,VWS V13.01,2013-04-26 09:04:00,
2013-04-26 05:06:00,54.5,35.8,29.91,SSE,160,10.0,16.0,49,0.00,,BKN120,0.00,VWS V13.01,2013-04-26 09:06:00,
2013-04-26 05:07:00,54.5,35.8,29.91,SE,141,6.0,14.0,49,0.00,,BKN120,0.00,VWS V13.01,2013-04-26 09:07:00,
2013-04-26 05:08:00,54.5,35.8,29.91,SSE,154,8.0,14.0,49,0.00,,BKN120,0.00,VWS V13.01,2013-04-26 09:08:00,
2013-04-26 05:10:00,54.5,35.8,29.91,SSE,148,12.0,20.0,49,0.00,,BKN120,0.00,VWS V13.01,2013-04-26 09:10:00,
2013-04-26 05:11:00,54.5,35.8,29.91,South,172,4.0,20.0,49,0.00,,BKN120,0.00,VWS V13.01,2013-04-26 09:11:00,
2013-04-26 05:12:00,54.5,35.8,29.91,South,189,4.0,20.0,49,0.00,,BKN120,0.00,VWS V13.01,2013-04-26 09:12:00,
2013-04-26 05:13:00,54.5,35.8,29.91,SSE,152,10.0,16.0,49,0.00,,BKN120,0.00,VWS V13.01,2013-04-26 09:13:00,
2013-04-26 05:15:00,54.4,36.2,29.91,South,182,10.0,14.0,50,0.00,,BKN120,0.00,VWS V13.01,2013-04-26 09:15:00,
2013-04-26 05:16:00,54.4,36.2,29.92,SSE,155,10.0,14.0,50,0.00,,BKN120,0.00,VWS V13.01,2013-04-26 09:16:00,
2013-04-26 05:17:00,54.4,36.2,29.92,South,191,0.0,14.0,50,0.00,,BKN120,0.00,VWS V13.01,2013-04-26 09:17:00,
2013-04-26 05:18:00,54.2,36.0,29.92,South,172,14.0,14.0,50,0.00,,BKN120,0.00,VWS V13.01,2013-04-26 09:18:00,
2013-04-26 05:21:00,54.2,35.5,29.92,South,176,12.0,22.0,49,0.00,,BKN120,0.00,VWS V13.01,2013-04-26 09:21:00,
2013-04-26 05:23:00,54.2,35.5,29.92,SSE,168,10.0,16.0,49,0.00,,BKN120,0.00,VWS V13.01,2013-04-26 09:23:00,
2013-04-26 05:26:00,54.2,36.0,29.92,SSE,154,6.0,22.0,50,0.00,,BKN120,0.00,VWS V13.01,2013-04-26 09:26:00,
2013-04-26 05:27:00,54.2,35.5,29.92,South,179,4.0,22.0,49,0.00,,BKN120,0.00,VWS V13.01,2013-04-26 09:27:00,
2013-04-26 05:28:00,54.2,36.0,29.92,South,176,12.0,18.0,50,0.00,,BKN120,0.00,VWS V13.01,2013-04-26 09:28:00,
2013-04-26 05:29:00,54.2,36.0,29.92,South,178,4.0,18.0,50,0.00,,BKN120,0.00,VWS V13.01,2013-04-26 09:29:00,
2013-04-26 05:30:00,54.2,36.0,29.92,SW,220,10.0,10.0,50,0.00,,SCT055,0.00,VWS V14.01,2013-04-26 09:30:00,
2013-04-26 05:31:00,54.2,36.0,29.92,SW,220,10.0,10.0,50,0.00,,BKN120,0.00,VWS V13.01,2013-04-26 09:31:00,
2013-04-26 05:33:00,54.2,36.0,29.92,South,174,8.0,24.0,50,0.00,,CLR,0.00,VWS V13.01,2013-04-26 09:33:00,
2013-04-26 05:34:00,54.2,36.0,29.92,South,182,2.0,24.0,50,0.00,,CLR,0.00,VWS V13.01,2013-04-26 09:34:00,
2013-04-26 05:35:00,54.2,36.0,29.92,SSE,152,6.0,20.0,50,0.00,,CLR,0.00,VWS V13.01,2013-04-26 09:35:00,
2013-04-26 05:37:00,54.2,36.0,29.92,SE,144,14.0,20.0,50,0.00,,CLR,0.00,VWS V13.01,2013-04-26 09:37:00,
2013-04-26 05:38:00,54.2,36.0,29.92,SSE,165,6.0,22.0,50,0.00,,CLR,0.00,VWS V13.01,2013-04-26 09:38:00,
2013-04-26 05:39:00,54.2,35.5,29.92,SSW,198,10.0,22.0,49,0.00,,CLR,0.00,VWS V13.01,2013-04-26 09:39:00,
2013-04-26 05:40:00,54.2,35.5,29.92,South,171,4.0,20.0,49,0.00,,CLR,0.00,VWS V13.01,2013-04-26 09:40:00,
2013-04-26 05:42:00,54.2,36.0,29.92,South,169,12.0,24.0,50,0.00,,CLR,0.00,VWS V13.01,2013-04-26 09:42:00,
2013-04-26 05:43:00,54.2,35.5,29.92,South,169,2.0,24.0,49,0.00,,CLR,0.00,VWS V13.01,2013-04-26 09:43:00,
2013-04-26 05:44:00,54.2,36.0,29.92,South,169,0.0,12.0,50,0.00,,CLR,0.00,VWS V13.01,2013-04-26 09:44:00,
2013-04-26 05:45:00,54.2,36.0,29.92,SSW,202,16.0,16.0,50,0.00,,CLR,0.00,VWS V13.01,2013-04-26 09:45:00,
2013-04-26 05:47:00,54.2,35.5,29.92,SSE,167,6.0,22.0,49,0.00,,CLR,0.00,VWS V13.01,2013-04-26 09:47:00,
2013-04-26 05:49:00,54.2,36.0,29.92,South,188,4.0,20.0,50,0.00,,CLR,0.00,VWS V13.01,2013-04-26 09:49:00,
2013-04-26 05:50:00,54.2,36.0,29.92,SSE,165,4.0,12.0,50,0.00,,CLR,0.00,VWS V13.01,2013-04-26 09:50:00,
2013-04-26 05:51:00,54.2,36.0,29.92,South,176,6.0,12.0,50,0.00,,CLR,0.00,VWS V13.01,2013-04-26 09:51:00,
2013-04-26 05:53:00,54.2,36.0,29.92,South,185,12.0,14.0,50,0.00,,CLR,0.00,VWS V13.01,2013-04-26 09:53:00,
2013-04-26 05:54:00,54.2,36.0,29.92,SSE,157,4.0,14.0,50,0.00,,CLR,0.00,VWS V13.01,2013-04-26 09:54:00,
2013-04-26 05:55:00,54.2,36.0,29.92,South,189,12.0,14.0,50,0.00,,CLR,0.00,VWS V13.01,2013-04-26 09:55:00,
2013-04-26 05:56:00,54.1,35.9,29.92,SSE,167,0.0,14.0,50,0.00,,CLR,0.00,VWS V13.01,2013-04-26 09:56:00,
2013-04-26 05:58:00,54.1,35.9,29.92,SSW,196,8.0,20.0,50,0.00,,CLR,0.00,VWS V13.01,2013-04-26 09:58:00,
2013-04-26 06:00:00,54.1,35.9,29.92,SSW,195,2.0,14.0,50,0.00,,CLR,0.00,VWS V13.01,2013-04-26 10:00:00,
2013-04-26 06:01:00,53.9,36.2,29.92,South,178,14.0,14.0,51,0.00,,CLR,0.00,VWS V13.01,2013-04-26 10:01:00,
2013-04-26 06:03:00,53.9,36.2,29.92,South,184,4.0,20.0,51,0.00,,CLR,0.00,VWS V13.01,2013-04-26 10:03:00,
2013-04-26 06:04:00,53.9,36.2,29.92,SSW,203,14.0,16.0,51,0.00,,CLR,0.00,VWS V13.01,2013-04-26 10:04:00,
2013-04-26 06:05:00,53.9,36.2,29.92,SSE,155,4.0,14.0,51,0.00,,CLR,0.00,VWS V13.01,2013-04-26 10:05:00,
2013-04-26 06:06:00,53.8,36.1,29.92,SSE,165,8.0,10.0,51,0.00,,CLR,0.00,VWS V13.01,2013-04-26 10:06:00,
2013-04-26 06:08:00,53.6,35.9,29.92,SSE,161,10.0,20.0,51,0.00,,CLR,0.00,VWS V13.01,2013-04-26 10:08:00,
2013-04-26 06:09:00,53.6,35.9,29.92,South,188,12.0,16.0,51,0.00,,CLR,0.00,VWS V13.01,2013-04-26 10:09:00,
2013-04-26 06:10:00,53.6,35.9,29.92,SSE,160,10.0,18.0,51,0.00,,CLR,0.00,VWS V13.01,2013-04-26 10:10:00,
2013-04-26 06:12:00,53.6,35.9,29.92,South,179,14.0,18.0,51,0.00,,CLR,0.00,VWS V13.01,2013-04-26 10:12:00,
2013-04-26 06:14:00,53.6,36.4,29.92,South,172,6.0,14.0,52,0.00,,CLR,0.00,VWS V13.01,2013-04-26 10:14:00,
2013-04-26 06:15:00,53.5,36.3,29.92,South,184,12.0,14.0,52,0.00,,CLR,0.00,VWS V13.01,2013-04-26 10:15:00,
2013-04-26 06:16:00,53.5,36.3,29.91,SSE,154,2.0,14.0,52,0.00,,CLR,0.00,VWS V13.01,2013-04-26 10:16:00,
2013-04-26 06:17:00,53.5,36.3,29.91,South,185,10.0,14.0,52,0.00,,CLR,0.00,VWS V13.01,2013-04-26 10:17:00,
2013-04-26 06:19:00,53.3,36.1,29.91,SE,145,4.0,20.0,52,0.00,,CLR,0.00,VWS V13.01,2013-04-26 10:19:00,
2013-04-26 06:20:00,53.3,36.1,29.91,SSW,196,2.0,16.0,52,0.00,,CLR,0.00,VWS V13.01,2013-04-26 10:20:00,
2013-04-26 06:21:00,53.3,36.1,29.91,SSE,152,20.0,20.0,52,0.00,,CLR,0.00,VWS V13.01,2013-04-26 10:21:00,
2013-04-26 06:22:00,53.3,36.1,29.91,SSE,160,2.0,20.0,52,0.00,,CLR,0.00,VWS V13.01,2013-04-26 10:22:00,
2013-04-26 06:24:00,53.3,36.1,29.91,South,184,24.0,24.0,52,0.00,,CLR,0.00,VWS V13.01,2013-04-26 10:24:00,
2013-04-26 06:25:00,53.3,36.1,29.91,SSE,157,2.0,24.0,52,0.00,,CLR,0.00,VWS V13.01,2013-04-26 10:25:00,
2013-04-26 06:26:00,53.2,36.0,29.91,SSE,158,2.0,24.0,52,0.00,,CLR,0.00,VWS V13.01,2013-04-26 10:26:00,
2013-04-26 06:27:00,53.2,36.5,29.91,SSE,152,4.0,16.0,53,0.00,,CLR,0.00,VWS V13.01,2013-04-26 10:27:00,
2013-04-26 06:29:00,53.2,36.5,29.91,South,171,10.0,10.0,53,0.00,,CLR,0.00,VWS V13.01,2013-04-26 10:29:00,
2013-04-26 06:30:00,53.2,36.5,29.91,South,182,6.0,12.0,53,0.00,,CLR,0.00,VWS V13.01,2013-04-26 10:30:00,
2013-04-26 06:32:00,53.2,36.5,29.92,South,175,12.0,14.0,53,0.00,,CLR,0.00,VWS V13.01,2013-04-26 10:32:00,
2013-04-26 06:35:00,53.1,36.4,29.92,SSE,160,0.0,12.0,53,0.00,,CLR,0.00,VWS V13.01,2013-04-26 10:35:00,
2013-04-26 06:36:00,53.1,36.4,29.92,South,169,2.0,8.0,53,0.00,,CLR,0.00,VWS V13.01,2013-04-26 10:36:00,
2013-04-26 06:39:00,53.1,36.9,29.92,South,181,4.0,14.0,54,0.00,,CLR,0.00,VWS V13.01,2013-04-26 10:39:00,
2013-04-26 06:40:00,53.1,36.9,29.92,South,184,14.0,26.0,54,0.00,,CLR,0.00,VWS V13.01,2013-04-26 10:40:00,
2013-04-26 06:41:00,53.1,36.9,29.92,South,172,6.0,26.0,54,0.00,,CLR,0.00,VWS V13.01,2013-04-26 10:41:00,
2013-04-26 06:44:00,53.1,36.9,29.92,SSE,167,6.0,10.0,54,0.00,,CLR,0.00,VWS V13.01,2013-04-26 10:44:00,
2013-04-26 06:45:00,52.9,36.7,29.92,South,178,0.0,8.0,54,0.00,,CLR,0.00,VWS V13.01,2013-04-26 10:45:00,
2013-04-26 06:46:00,52.9,36.7,29.92,South,181,4.0,8.0,54,0.00,,CLR,0.00,VWS V13.01,2013-04-26 10:46:00,
2013-04-26 06:49:00,52.9,36.7,29.92,SSE,148,8.0,12.0,54,0.00,,CLR,0.00,VWS V13.01,2013-04-26 10:49:00,
2013-04-26 06:50:00,52.9,36.7,29.92,SSE,152,12.0,18.0,54,0.00,,CLR,0.00,VWS V13.01,2013-04-26 10:50:00,
2013-04-26 06:51:00,52.9,36.7,29.92,South,171,6.0,20.0,54,0.00,,CLR,0.00,VWS V13.01,2013-04-26 10:51:00,
2013-04-26 06:55:00,52.9,37.2,29.92,South,171,4.0,6.0,55,0.00,,CLR,0.00,VWS V13.01,2013-04-26 10:55:00,
2013-04-26 06:56:00,52.9,36.7,29.92,South,171,0.0,4.0,54,0.00,,CLR,0.00,VWS V13.01,2013-04-26 10:56:00,
2013-04-26 06:57:00,52.9,37.2,29.92,South,171,6.0,6.0,55,0.00,,CLR,0.00,VWS V13.01,2013-04-26 10:57:00,
2013-04-26 07:00:00,52.8,37.1,29.92,South,181,4.0,14.0,55,0.00,,CLR,0.00,VWS V13.01,2013-04-26 11:00:00,
2013-04-26 07:01:00,52.8,37.1,29.92,SSE,157,2.0,14.0,55,0.00,,CLR,0.00,VWS V13.01,2013-04-26 11:01:00,
2013-04-26 07:02:00,52.8,37.1,29.92,SSE,164,6.0,14.0,55,0.00,,CLR,0.00,VWS V13.01,2013-04-26 11:02:00,
2013-04-26 07:05:00,52.8,37.1,29.92,SSE,168,0.0,14.0,55,0.00,,CLR,0.00,VWS V13.01,2013-04-26 11:05:00,
2013-04-26 07:06:00,52.8,37.1,29.92,SSE,168,4.0,12.0,55,0.00,,CLR,0.00,VWS V13.01,2013-04-26 11:06:00,
2013-04-26 07:07:00,52.6,36.9,29.92,South,169,6.0,12.0,55,0.00,,CLR,0.00,VWS V13.01,2013-04-26 11:07:00,
2013-04-26 07:10:00,52.6,36.9,29.92,South,184,4.0,18.0,55,0.00,,CLR,0.00,VWS V13.01,2013-04-26 11:10:00,
2013-04-26 07:11:00,52.6,36.9,29.92,South,172,10.0,14.0,55,0.00,,CLR,0.00,VWS V13.01,2013-04-26 11:11:00,
2013-04-26 07:12:00,52.6,36.9,29.92,South,176,6.0,20.0,55,0.00,,CLR,0.00,VWS V13.01,2013-04-26 11:12:00,
2013-04-26 07:13:00,52.5,36.8,29.92,SSE,168,12.0,20.0,55,0.00,,CLR,0.00,VWS V13.01,2013-04-26 11:13:00,
2013-04-26 07:15:00,52.5,36.8,29.92,SSE,161,12.0,20.0,55,0.00,,CLR,0.00,VWS V13.01,2013-04-26 11:15:00,
2013-04-26 07:16:00,52.5,37.3,29.92,SSE,152,8.0,20.0,56,0.00,,CLR,0.00,VWS V13.01,2013-04-26 11:16:00,
2013-04-26 07:17:00,52.5,37.3,29.92,SE,136,8.0,16.0,56,0.00,,CLR,0.00,VWS V13.01,2013-04-26 11:17:00,
2013-04-26 07:19:00,52.5,37.3,29.92,SW,219,6.0,24.0,56,0.00,,CLR,0.00,VWS V13.01,2013-04-26 11:19:00,
2013-04-26 07:21:00,52.3,37.1,29.92,SSE,167,6.0,14.0,56,0.00,,CLR,0.00,VWS V13.01,2013-04-26 11:21:00,
2013-04-26 07:22:00,52.3,37.1,29.92,SE,133,4.0,14.0,56,0.00,,CLR,0.00,VWS V13.01,2013-04-26 11:22:00,
2013-04-26 07:23:00,52.3,37.1,29.92,SSE,152,2.0,14.0,56,0.00,,CLR,0.00,VWS V13.01,2013-04-26 11:23:00,
2013-04-26 07:24:00,52.3,37.1,29.92,South,169,14.0,20.0,56,0.00,,CLR,0.00,VWS V13.01,2013-04-26 11:24:00,
2013-04-26 07:27:00,52.2,37.4,29.92,SSE,164,6.0,14.0,57,0.00,,CLR,0.00,VWS V13.01,2013-04-26 11:27:00,
2013-04-26 07:28:00,52.2,37.4,29.92,SSE,152,0.0,14.0,57,0.00,,CLR,0.00,VWS V13.01,2013-04-26 11:28:00,
2013-04-26 07:29:00,52.2,37.4,29.92,South,179,14.0,14.0,57,0.00,,CLR,0.00,VWS V13.01,2013-04-26 11:29:00,
2013-04-26 07:30:00,52.0,37.3,29.93,SSE,161,10.0,14.0,57,0.00,,SCT055,0.00,VWS V14.01,2013-04-26 11:30:00,
2013-04-26 07:32:00,52.0,37.2,29.93,SSE,154,4.0,14.0,57,0.00,,CLR,0.00,VWS V13.01,2013-04-26 11:32:00,
2013-04-26 07:33:00,52.0,37.2,29.93,SSE,154,0.0,14.0,57,0.00,,CLR,0.00,VWS V13.01,2013-04-26 11:33:00,
2013-04-26 07:34:00,52.0,37.7,29.93,SSE,157,12.0,14.0,58,0.00,,CLR,0.00,VWS V13.01,2013-04-26 11:34:00,
2013-04-26 07:37:00,51.9,37.6,29.93,SSE,155,2.0,8.0,58,0.00,,CLR,0.00,VWS V13.01,2013-04-26 11:37:00,
2013-04-26 07:38:00,51.9,37.6,29.93,SSE,155,0.0,6.0,58,0.00,,CLR,0.00,VWS V13.01,2013-04-26 11:38:00,
2013-04-26 07:40:00,51.9,37.6,29.93,SSE,162,0.0,12.0,58,0.00,,CLR,0.00,VWS V13.01,2013-04-26 11:40:00,
2013-04-26 07:43:00,51.7,37.4,29.93,South,182,2.0,12.0,58,0.00,,CLR,0.00,VWS V13.01,2013-04-26 11:43:00,
2013-04-26 07:45:00,51.7,37.8,29.93,South,174,0.0,14.0,59,0.00,,CLR,0.00,VWS V13.01,2013-04-26 11:45:00,
2013-04-26 07:48:00,51.6,37.8,29.93,South,169,8.0,12.0,59,0.00,,CLR,0.00,VWS V13.01,2013-04-26 11:48:00,
2013-04-26 07:49:00,51.6,37.8,29.93,South,169,4.0,12.0,59,0.00,,CLR,0.00,VWS V13.01,2013-04-26 11:49:00,
2013-04-26 07:51:00,51.6,37.8,29.93,South,169,0.0,6.0,59,0.00,,CLR,0.00,VWS V13.01,2013-04-26 11:51:00,
2013-04-26 07:54:00,51.4,38.0,29.93,South,169,4.0,6.0,60,0.00,,CLR,0.00,VWS V13.01,2013-04-26 11:54:00,
2013-04-26 07:56:00,51.4,38.0,29.93,SSW,199,0.0,14.0,60,0.00,,CLR,0.00,VWS V13.01,2013-04-26 11:56:00,
2013-04-26 07:59:00,51.4,38.0,29.93,South,178,2.0,20.0,60,0.00,,CLR,0.00,VWS V13.01,2013-04-26 11:59:00,
2013-04-26 08:00:00,51.4,38.0,29.93,SSE,167,0.0,12.0,60,0.00,,CLR,0.00,VWS V13.01,2013-04-26 12:00:00,
2013-04-26 08:01:00,51.3,37.9,29.94,SSE,158,6.0,10.0,60,0.00,,CLR,0.00,VWS V13.01,2013-04-26 12:01:00,
2013-04-26 08:04:00,51.3,38.3,29.94,South,169,12.0,12.0,61,0.00,,CLR,0.00,VWS V13.01,2013-04-26 12:04:00,
2013-04-26 08:05:00,51.3,38.3,29.94,SSW,192,14.0,14.0,61,0.00,,CLR,0.00,VWS V13.01,2013-04-26 12:05:00,
2013-04-26 08:06:00,51.3,38.3,29.94,SSE,160,2.0,16.0,61,0.00,,CLR,0.00,VWS V13.01,2013-04-26 12:06:00,
2013-04-26 08:09:00,51.3,38.3,29.94,South,174,10.0,12.0,61,0.00,,CLR,0.00,VWS V13.01,2013-04-26 12:09:00,
2013-04-26 08:10:00,51.3,38.3,29.94,South,174,6.0,12.0,61,0.00,,CLR,0.00,VWS V13.01,2013-04-26 12:10:00,
2013-04-26 08:11:00,51.3,38.3,29.94,SSE,150,4.0,12.0,61,0.00,,CLR,0.00,VWS V13.01,2013-04-26 12:11:00,
2013-04-26 08:14:00,51.3,38.3,29.94,SSE,162,4.0,10.0,61,0.00,,CLR,0.00,VWS V13.01,2013-04-26 12:14:00,
2013-04-26 08:15:00,51.3,38.3,29.94,SSE,162,2.0,10.0,61,0.00,,CLR,0.00,VWS V13.01,2013-04-26 12:15:00,
2013-04-26 08:16:00,51.3,38.3,29.95,SSE,162,0.0,10.0,61,0.00,,CLR,0.00,VWS V13.01,2013-04-26 12:16:00,
2013-04-26 08:17:00,51.3,38.3,29.95,South,169,2.0,12.0,61,0.00,,CLR,0.00,VWS V13.01,2013-04-26 12:17:00,
2013-04-26 08:20:00,51.3,38.7,29.95,SSE,165,10.0,16.0,62,0.00,,CLR,0.00,VWS V13.01,2013-04-26 12:20:00,
2013-04-26 08:21:00,51.4,38.8,29.95,SSE,158,10.0,16.0,62,0.00,,CLR,0.00,VWS V13.01,2013-04-26 12:21:00,
2013-04-26 08:22:00,51.3,38.7,29.95,South,175,2.0,16.0,62,0.00,,CLR,0.00,VWS V13.01,2013-04-26 12:22:00,
2013-04-26 08:25:00,51.4,38.8,29.95,SE,137,2.0,14.0,62,0.00,,CLR,0.00,VWS V13.01,2013-04-26 12:25:00,
2013-04-26 08:26:00,51.4,38.8,29.95,SE,145,0.0,14.0,62,0.00,,CLR,0.00,VWS V13.01,2013-04-26 12:26:00,
2013-04-26 08:27:00,51.3,38.7,29.95,South,179,4.0,12.0,62,0.00,,CLR,0.00,VWS V13.01,2013-04-26 12:27:00,
2013-04-26 08:30:00,51.3,38.7,29.95,South,181,4.0,10.0,62,0.00,,CLR,0.00,VWS V13.01,2013-04-26 12:30:00,
2013-04-26 08:31:00,51.3,39.2,29.95,South,181,2.0,10.0,63,0.00,,CLR,0.00,VWS V13.01,2013-04-26 12:31:00,
2013-04-26 08:32:00,51.3,39.2,29.95,SW,216,18.0,18.0,63,0.00,,CLR,0.00,VWS V13.01,2013-04-26 12:32:00,
2013-04-26 08:35:00,51.3,39.2,29.95,SSE,160,4.0,16.0,63,0.00,,CLR,0.00,VWS V13.01,2013-04-26 12:35:00,
2013-04-26 08:37:00,51.3,39.2,29.95,South,174,6.0,22.0,63,0.00,,CLR,0.00,VWS V13.01,2013-04-26 12:37:00,
2013-04-26 08:38:00,51.3,39.2,29.95,South,186,2.0,22.0,63,0.00,,CLR,0.00,VWS V13.01,2013-04-26 12:38:00,
2013-04-26 08:40:00,51.3,39.2,29.95,SSE,158,0.0,10.0,63,0.00,,CLR,0.00,VWS V13.01,2013-04-26 12:40:00,
2013-04-26 08:42:00,51.3,39.5,29.95,South,181,10.0,12.0,64,0.00,,CLR,0.00,VWS V13.01,2013-04-26 12:42:00,
2013-04-26 08:43:00,51.4,39.7,29.95,South,179,6.0,14.0,64,0.00,,CLR,0.00,VWS V13.01,2013-04-26 12:43:00,
2013-04-26 08:46:00,51.4,39.7,29.95,South,172,6.0,14.0,64,0.00,,CLR,0.00,VWS V13.01,2013-04-26 12:46:00,
2013-04-26 08:47:00,51.4,39.7,29.95,South,172,0.0,10.0,64,0.00,,CLR,0.00,VWS V13.01,2013-04-26 12:47:00,
2013-04-26 08:48:00,51.4,39.7,29.95,SSE,151,6.0,12.0,64,0.00,,CLR,0.00,VWS V13.01,2013-04-26 12:48:00,
2013-04-26 08:51:00,51.6,39.8,29.95,SSW,195,24.0,24.0,64,0.00,,CLR,0.00,VWS V13.01,2013-04-26 12:51:00,
2013-04-26 08:52:00,51.6,39.8,29.95,South,174,10.0,24.0,64,0.00,,CLR,0.00,VWS V13.01,2013-04-26 12:52:00,
2013-04-26 08:53:00,51.6,39.8,29.95,West,268,10.0,24.0,64,0.00,,CLR,0.00,VWS V13.01,2013-04-26 12:53:00,
2013-04-26 08:56:00,51.7,39.9,29.95,South,172,10.0,12.0,64,0.00,,CLR,0.00,VWS V13.01,2013-04-26 12:56:00,
2013-04-26 08:58:00,51.9,40.1,29.95,South,172,0.0,12.0,64,0.00,,CLR,0.00,VWS V13.01,2013-04-26 12:58:00,
2013-04-26 08:59:00,51.9,40.1,29.95,South,172,0.0,0.0,64,0.00,,CLR,0.00,VWS V13.01,2013-04-26 12:59:00,
2013-04-26 09:00:00,52.0,40.2,29.96,SSE,152,0.0,4.0,64,0.00,,SCT055,0.00,VWS V14.01,2013-04-26 13:00:00,
2013-04-26 09:01:00,52.0,40.2,29.96,SSE,152,0.0,10.0,64,0.00,,CLR,0.00,VWS V13.01,2013-04-26 13:01:00,
2013-04-26 09:03:00,52.0,40.2,29.96,SSE,154,0.0,2.0,64,0.00,,CLR,0.00,VWS V13.01,2013-04-26 13:03:00,
2013-04-26 09:04:00,52.2,40.4,29.96,SSW,193,10.0,10.0,64,0.00,,CLR,0.00,VWS V13.01,2013-04-26 13:04:00,
2013-04-26 09:06:00,52.2,40.4,29.96,SSE,164,12.0,12.0,64,0.00,,CLR,0.00,VWS V13.01,2013-04-26 13:06:00,
2013-04-26 09:08:00,52.3,40.5,29.96,SSE,148,4.0,12.0,64,0.00,,CLR,0.00,VWS V13.01,2013-04-26 13:08:00,
2013-04-26 09:09:00,52.3,40.5,29.96,SE,134,6.0,14.0,64,0.00,,CLR,0.00,VWS V13.01,2013-04-26 13:09:00,
2013-04-26 09:10:00,52.3,40.5,29.96,SSE,160,6.0,14.0,64,0.00,,CLR,0.00,VWS V13.01,2013-04-26 13:10:00,
2013-04-26 09:11:00,52.3,40.5,29.96,SSE,162,0.0,12.0,64,0.00,,CLR,0.00,VWS V13.01,2013-04-26 13:11:00,
2013-04-26 09:13:00,52.5,40.7,29.96,ESE,123,2.0,12.0,64,0.00,,CLR,0.00,VWS V13.01,2013-04-26 13:13:00,
2013-04-26 09:14:00,52.5,40.7,29.96,ESE,123,0.0,12.0,64,0.00,,CLR,0.00,VWS V13.01,2013-04-26 13:14:00,
2013-04-26 09:15:00,52.5,40.7,29.96,SSW,205,0.0,14.0,64,0.00,,CLR,0.00,VWS V13.01,2013-04-26 13:15:00,
2013-04-26 09:16:00,52.5,40.7,29.97,SE,127,10.0,14.0,64,0.00,,CLR,0.00,VWS V13.01,2013-04-26 13:16:00,
2013-04-26 09:19:00,52.6,40.8,29.97,SE,145,0.0,10.0,64,0.00,,CLR,0.00,VWS V13.01,2013-04-26 13:19:00,
2013-04-26 09:21:00,52.6,40.8,29.97,SSE,160,0.0,16.0,64,0.00,,CLR,0.00,VWS V13.01,2013-04-26 13:21:00,
2013-04-26 09:22:00,52.6,40.8,29.97,SSE,158,2.0,10.0,64,0.00,,CLR,0.00,VWS V13.01,2013-04-26 13:22:00,
2013-04-26 09:24:00,52.8,41.0,29.97,SSE,165,8.0,14.0,64,0.00,,CLR,0.00,VWS V13.01,2013-04-26 13:24:00,
2013-04-26 09:25:00,52.8,41.0,29.97,SSE,165,8.0,14.0,64,0.00,,CLR,0.00,VWS V13.01,2013-04-26 13:25:00,
2013-04-26 09:26:00,52.8,41.0,29.97,ESE,116,4.0,12.0,64,0.00,,CLR,0.00,VWS V13.01,2013-04-26 13:26:00,
2013-04-26 09:27:00,52.8,41.0,29.97,ESE,116,0.0,12.0,64,0.00,,CLR,0.00,VWS V13.01,2013-04-26 13:27:00,
2013-04-26 09:29:00,52.9,41.1,29.97,SSE,162,4.0,10.0,64,0.00,,CLR,0.00,VWS V13.01,2013-04-26 13:29:00,
2013-04-26 09:30:00,52.9,41.1,29.97,SSE,165,6.0,10.0,64,0.00,,CLR,0.00,VWS V13.01,2013-04-26 13:30:00,
2013-04-26 09:31:00,52.9,41.1,29.97,SSE,158,6.0,6.0,64,0.00,,CLR,0.00,VWS V13.01,2013-04-26 13:31:00,
2013-04-26 09:32:00,52.9,41.1,29.97,SSE,158,4.0,6.0,64,0.00,,CLR,0.00,VWS V13.01,2013-04-26 13:32:00,
2013-04-26 09:34:00,53.1,41.3,29.97,SSE,160,0.0,8.0,64,0.00,,CLR,0.00,VWS V13.01,2013-04-26 13:34:00,
2013-04-26 09:35:00,53.1,41.3,29.97,SSE,160,4.0,6.0,64,0.00,,CLR,0.00,VWS V13.01,2013-04-26 13:35:00,
2013-04-26 09:37:00,53.2,41.3,29.97,SSE,167,0.0,16.0,64,0.00,,CLR,0.00,VWS V13.01,2013-04-26 13:37:00,
2013-04-26 09:40:00,53.2,41.3,29.97,SSE,167,0.0,10.0,64,0.00,,CLR,0.00,VWS V13.01,2013-04-26 13:40:00,
2013-04-26 09:42:00,53.3,41.5,29.97,SSW,202,4.0,8.0,64,0.00,,CLR,0.00,VWS V13.01,2013-04-26 13:42:00,
2013-04-26 09:45:00,53.3,41.5,29.97,SSE,154,2.0,10.0,64,0.00,,CLR,0.00,VWS V13.01,2013-04-26 13:45:00,
2013-04-26 09:46:00,53.5,41.6,29.97,SSE,158,2.0,16.0,64,0.00,,CLR,0.00,VWS V13.01,2013-04-26 13:46:00,
2013-04-26 09:47:00,53.5,41.6,29.97,SSE,158,4.0,10.0,64,0.00,,CLR,0.00,VWS V13.01,2013-04-26 13:47:00,
2013-04-26 09:48:00,53.5,41.6,29.97,SSE,158,4.0,10.0,64,0.00,,CLR,0.00,VWS V13.01,2013-04-26 13:48:00,
2013-04-26 09:50:00,53.6,41.7,29.97,SSE,152,2.0,16.0,64,0.00,,CLR,0.00,VWS V13.01,2013-04-26 13:50:00,
2013-04-26 09:51:00,53.6,41.7,29.97,SSE,160,6.0,16.0,64,0.00,,CLR,0.00,VWS V13.01,2013-04-26 13:51:00,
2013-04-26 09:53:00,53.8,42.3,29.97,SSE,158,0.0,10.0,65,0.00,,CLR,0.00,VWS V13.01,2013-04-26 13:53:00,
2013-04-26 09:55:00,53.9,42.4,29.97,SSE,155,4.0,10.0,65,0.00,,CLR,0.00,VWS V13.01,2013-04-26 13:55:00,
2013-04-26 09:56:00,53.9,42.4,29.97,SSE,167,6.0,10.0,65,0.00,,CLR,0.00,VWS V13.01,2013-04-26 13:56:00,
2013-04-26 09:58:00,54.1,42.2,29.97,SSW,206,10.0,12.0,64,0.00,,CLR,0.00,VWS V13.01,2013-04-26 13:58:00,
2013-04-26 10:00:00,54.1,42.2,29.97,South,174,2.0,22.0,64,0.00,,CLR,0.00,VWS V13.01,2013-04-26 14:00:00,
2013-04-26 10:01:00,54.2,42.3,29.98,SSE,164,2.0,14.0,64,0.00,,CLR,0.00,VWS V13.01,2013-04-26 14:01:00,
2013-04-26 10:02:00,54.2,42.3,29.98,South,191,4.0,16.0,64,0.00,,CLR,0.00,VWS V13.01,2013-04-26 14:02:00,
2013-04-26 10:03:00,54.2,42.3,29.98,South,189,6.0,16.0,64,0.00,,CLR,0.00,VWS V13.01,2013-04-26 14:03:00,
2013-04-26 10:06:00,54.4,42.5,29.98,South,175,0.0,6.0,64,0.00,,CLR,0.00,VWS V13.01,2013-04-26 14:06:00,
2013-04-26 10:07:00,54.5,42.6,29.98,SSE,148,18.0,18.0,64,0.00,,CLR,0.00,VWS V13.01,2013-04-26 14:07:00,
2013-04-26 10:08:00,54.5,42.6,29.98,South,174,2.0,18.0,64,0.00,,CLR,0.00,VWS V13.01,2013-04-26 14:08:00,
2013-04-26 10:11:00,54.7,42.8,29.98,SSW,196,2.0,14.0,64,0.00,,CLR,0.00,VWS V13.01,2013-04-26 14:11:00,
2013-04-26 10:12:00,54.8,42.9,29.98,SSW,193,4.0,10.0,64,0.00,,CLR,0.00,VWS V13.01,2013-04-26 14:12:00,
2013-04-26 10:13:00,54.8,42.9,29.98,SSW,193,0.0,10.0,64,0.00,,CLR,0.00,VWS V13.01,2013-04-26 14:13:00,
2013-04-26 10:17:00,55.1,42.8,29.99,South,182,12.0,14.0,63,0.00,,CLR,0.00,VWS V13.01,2013-04-26 14:17:00,
2013-04-26 10:18:00,55.3,42.9,29.99,SSE,158,0.0,16.0,63,0.00,,CLR,0.00,VWS V13.01,2013-04-26 14:18:00,
2013-04-26 10:19:00,55.3,42.9,29.99,SSE,167,8.0,16.0,63,0.00,,CLR,0.00,VWS V13.01,2013-04-26 14:19:00,
2013-04-26 10:22:00,55.6,42.8,29.99,SSE,167,0.0,24.0,62,0.00,,CLR,0.00,VWS V13.01,2013-04-26 14:22:00,
2013-04-26 10:23:00,55.7,43.3,29.99,SSE,167,4.0,12.0,63,0.00,,CLR,0.00,VWS V13.01,2013-04-26 14:23:00,
2013-04-26 10:24:00,55.7,42.9,29.99,SSE,165,6.0,14.0,62,0.00,,CLR,0.00,VWS V13.01,2013-04-26 14:24:00,
2013-04-26 10:27:00,56.2,43.4,29.99,South,181,12.0,16.0,62,0.00,,CLR,0.00,VWS V13.01,2013-04-26 14:27:00,
2013-04-26 10:28:00,56.2,43.4,29.99,SSE,157,4.0,16.0,62,0.00,,CLR,0.00,VWS V13.01,2013-04-26 14:28:00,
2013-04-26 10:29:00,56.3,43.5,29.99,South,182,10.0,16.0,62,0.00,,CLR,0.00,VWS V13.01,2013-04-26 14:29:00,
2013-04-26 10:30:00,56.7,43.4,29.98,SSE,157,8.0,14.0,61,0.00,,SCT055,0.00,VWS V14.01,2013-04-26 14:30:00,
2013-04-26 10:32:00,56.7,43.4,29.98,SSW,209,0.0,14.0,61,0.00,,CLR,0.00,VWS V13.01,2013-04-26 14:32:00,
2013-04-26 10:33:00,56.9,43.6,29.98,South,182,6.0,8.0,61,0.00,,CLR,0.00,VWS V13.01,2013-04-26 14:33:00,
2013-04-26 10:34:00,57.0,43.3,29.98,South,174,6.0,16.0,60,0.00,,CLR,0.00,VWS V13.01,2013-04-26 14:34:00,
2013-04-26 10:38:00,57.5,43.7,29.98,SSW,212,10.0,12.0,60,0.00,,CLR,0.00,VWS V13.01,2013-04-26 14:38:00,
2013-04-26 10:39:00,57.8,44.0,29.98,South,184,4.0,12.0,60,0.00,,CLR,0.00,VWS V13.01,2013-04-26 14:39:00,
2013-04-26 10:43:00,58.3,43.6,29.98,SE,138,4.0,12.0,58,0.00,,CLR,0.00,VWS V13.01,2013-04-26 14:43:00,
2013-04-26 10:44:00,58.7,44.4,29.98,SE,124,12.0,12.0,59,0.00,,CLR,0.00,VWS V13.01,2013-04-26 14:44:00,
2013-04-26 10:45:00,58.7,44.4,29.98,SE,128,4.0,12.0,59,0.00,,CLR,0.00,VWS V13.01,2013-04-26 14:45:00,
2013-04-26 10:48:00,59.2,44.0,29.98,South,185,12.0,12.0,57,0.00,,CLR,0.00,VWS V13.01,2013-04-26 14:48:00,
2013-04-26 10:49:00,59.5,43.8,29.98,SW,230,10.0,12.0,56,0.00,,CLR,0.00,VWS V13.01,2013-04-26 14:49:00,
2013-04-26 10:50:00,59.5,43.8,29.98,SW,230,6.0,12.0,56,0.00,,CLR,0.00,VWS V13.01,2013-04-26 14:50:00,
2013-04-26 10:51:00,59.6,43.9,29.98,SW,216,8.0,10.0,56,0.00,,CLR,0.00,VWS V13.01,2013-04-26 14:51:00,
2013-04-26 10:53:00,60.1,44.4,29.98,SSW,203,6.0,14.0,56,0.00,,CLR,0.00,VWS V13.01,2013-04-26 14:53:00,
2013-04-26 10:54:00,60.1,44.4,29.98,NE,37,2.0,14.0,56,0.00,,CLR,0.00,VWS V13.01,2013-04-26 14:54:00,
2013-04-26 10:55:00,60.1,43.9,29.98,SSE,167,8.0,18.0,55,0.00,,CLR,0.00,VWS V13.01,2013-04-26 14:55:00,
2013-04-26 10:56:00,60.2,44.0,29.98,South,181,22.0,22.0,55,0.00,,CLR,0.00,VWS V13.01,2013-04-26 14:56:00,
2013-04-26 10:58:00,60.4,43.7,29.98,West,263,14.0,24.0,54,0.00,,CLR,0.00,VWS V13.01,2013-04-26 14:58:00,
2013-04-26 10:59:00,60.4,43.7,29.98,SSE,152,4.0,24.0,54,0.00,,CLR,0.00,VWS V13.01,2013-04-26 14:59:00,
2013-04-26 11:00:00,60.4,43.7,29.98,SW,229,10.0,24.0,54,0.00,,CLR,0.00,VWS V13.01,2013-04-26 15:00:00,
2013-04-26 11:01:00,60.4,43.7,29.98,South,188,4.0,16.0,54,0.00,,CLR,0.00,VWS V13.01,2013-04-26 15:01:00,
2013-04-26 11:03:00,60.4,43.7,29.98,South,189,6.0,12.0,54,0.00,,CLR,0.00,VWS V13.01,2013-04-26 15:03:00,
2013-04-26 11:04:00,60.4,43.7,29.98,SW,224,4.0,12.0,54,0.00,,CLR,0.00,VWS V13.01,2013-04-26 15:04:00,
2013-04-26 11:05:00,60.5,43.8,29.98,South,184,6.0,16.0,54,0.00,,CLR,0.00,VWS V13.01,2013-04-26 15:05:00,
2013-04-26 11:06:00,60.5,43.8,29.98,SE,141,0.0,16.0,54,0.00,,CLR,0.00,VWS V13.01,2013-04-26 15:06:00,
2013-04-26 11:09:00,60.7,44.5,29.98,SSE,167,12.0,32.0,55,0.00,,CLR,0.00,VWS V13.01,2013-04-26 15:09:00,
2013-04-26 11:10:00,60.7,44.0,29.98,SSE,162,2.0,26.0,54,0.00,,CLR,0.00,VWS V13.01,2013-04-26 15:10:00,
2013-04-26 11:11:00,60.7,43.5,29.98,SSE,164,4.0,26.0,53,0.00,,CLR,0.00,VWS V13.01,2013-04-26 15:11:00,
2013-04-26 11:14:00,60.7,43.5,29.98,SSE,164,10.0,16.0,53,0.00,,CLR,0.00,VWS V13.01,2013-04-26 15:14:00,
2013-04-26 11:16:00,60.7,44.0,29.98,SSE,151,0.0,16.0,54,0.00,,CLR,0.00,VWS V13.01,2013-04-26 15:16:00,
2013-04-26 11:17:00,60.7,44.0,29.98,SSE,147,12.0,12.0,54,0.00,,CLR,0.00,VWS V13.01,2013-04-26 15:17:00,
2013-04-26 11:19:00,60.9,44.2,29.98,South,171,2.0,10.0,54,0.00,,CLR,0.00,VWS V13.01,2013-04-26 15:19:00,
2013-04-26 11:21:00,60.9,44.2,29.98,South,176,24.0,28.0,54,0.00,,CLR,0.00,VWS V13.01,2013-04-26 15:21:00,
2013-04-26 11:22:00,60.9,44.2,29.98,SSE,167,4.0,28.0,54,0.00,,CLR,0.00,VWS V13.01,2013-04-26 15:22:00,
2013-04-26 11:23:00,60.9,43.7,29.98,SW,222,10.0,28.0,53,0.00,,CLR,0.00,VWS V13.01,2013-04-26 15:23:00,
2013-04-26 11:24:00,60.9,43.7,29.98,South,179,12.0,28.0,53,0.00,,CLR,0.00,VWS V13.01,2013-04-26 15:24:00,
2013-04-26 11:25:00,60.9,43.7,29.98,South,188,2.0,28.0,53,0.00,,CLR,0.00,VWS V13.01,2013-04-26 15:25:00,
2013-04-26 11:27:00,60.9,43.7,29.98,SW,234,0.0,16.0,53,0.00,,CLR,0.00,VWS V13.01,2013-04-26 15:27:00,
2013-04-26 11:28:00,61.0,43.8,29.98,SSE,151,0.0,12.0,53,0.00,,CLR,0.00,VWS V13.01,2013-04-26 15:28:00,
2013-04-26 11:30:00,61.0,43.8,29.98,South,171,6.0,16.0,53,0.00,,CLR,0.00,VWS V13.01,2013-04-26 15:30:00,
2013-04-26 11:32:00,61.0,43.8,29.98,SSW,212,12.0,18.0,53,0.00,,CLR,0.00,VWS V13.01,2013-04-26 15:32:00,
2013-04-26 11:33:00,61.0,43.8,29.98,SSE,150,10.0,16.0,53,0.00,,CLR,0.00,VWS V13.01,2013-04-26 15:33:00,
2013-04-26 11:35:00,61.2,44.0,29.98,SW,216,14.0,14.0,53,0.00,,CLR,0.00,VWS V13.01,2013-04-26 15:35:00,
2013-04-26 11:37:00,61.2,44.0,29.98,South,176,4.0,14.0,53,0.00,,CLR,0.00,VWS V13.01,2013-04-26 15:37:00,
2013-04-26 11:39:00,61.3,43.5,29.98,SSW,199,2.0,26.0,52,0.00,,CLR,0.00,VWS V13.01,2013-04-26 15:39:00,
2013-04-26 11:40:00,61.3,43.5,29.98,South,174,0.0,20.0,52,0.00,,CLR,0.00,VWS V13.01,2013-04-26 15:40:00,
2013-04-26 11:42:00,61.3,44.0,29.98,SW,223,14.0,22.0,53,0.00,,CLR,0.00,VWS V13.01,2013-04-26 15:42:00,
2013-04-26 11:44:00,61.5,43.7,29.98,South,185,12.0,24.0,52,0.00,,CLR,0.00,VWS V13.01,2013-04-26 15:44:00,
2013-04-26 11:45:00,61.5,43.7,29.98,South,188,16.0,16.0,52,0.00,,CLR,0.00,VWS V13.01,2013-04-26 15:45:00,
2013-04-26 11:46:00,61.5,43.7,29.98,SW,219,8.0,16.0,52,0.00,,CLR,0.00,VWS V13.01,2013-04-26 15:46:00,
2013-04-26 11:48:00,61.6,43.8,29.98,South,185,6.0,12.0,52,0.00,,CLR,0.00,VWS V13.01,2013-04-26 15:48:00,
2013-04-26 11:49:00,61.6,43.8,29.98,SE,138,12.0,14.0,52,0.00,,CLR,0.00,VWS V13.01,2013-04-26 15:49:00,
2013-04-26 11:50:00,61.8,43.5,29.98,SSE,161,10.0,24.0,51,0.00,,CLR,0.00,VWS V13.01,2013-04-26 15:50:00,
2013-04-26 11:51:00,61.8,43.5,29.98,SSW,199,4.0,20.0,51,0.00,,CLR,0.00,VWS V13.01,2013-04-26 15:51:00,
2013-04-26 11:53:00,61.8,44.0,29.98,South,191,2.0,10.0,52,0.00,,CLR,0.00,VWS V13.01,2013-04-26 15:53:00,
2013-04-26 11:54:00,61.8,44.0,29.98,SW,217,4.0,10.0,52,0.00,,CLR,0.00,VWS V13.01,2013-04-26 15:54:00,
2013-04-26 11:56:00,62.0,43.7,29.98,SSW,203,4.0,12.0,51,0.00,,CLR,0.00,VWS V13.01,2013-04-26 15:56:00,
2013-04-26 11:59:00,62.1,43.8,29.98,SSE,168,6.0,10.0,51,0.00,,CLR,0.00,VWS V13.01,2013-04-26 15:59:00,
2013-04-26 12:00:00,62.1,44.3,29.98,South,179,8.0,12.0,52,0.00,,CLR,0.00,VWS V13.01,2013-04-26 16:00:00,
2013-04-26 12:01:00,62.1,44.3,29.99,SE,134,4.0,14.0,52,0.00,,CLR,0.00,VWS V13.01,2013-04-26 16:01:00,
2013-04-26 12:04:00,62.3,44.0,29.99,South,175,4.0,20.0,51,0.00,,CLR,0.00,VWS V13.01,2013-04-26 16:04:00,
2013-04-26 12:06:00,62.3,44.0,29.99,South,172,10.0,14.0,51,0.00,,CLR,0.00,VWS V13.01,2013-04-26 16:06:00,
2013-04-26 12:07:00,62.3,44.0,29.99,SSE,167,4.0,14.0,51,0.00,,CLR,0.00,VWS V13.01,2013-04-26 16:07:00,
2013-04-26 12:09:00,62.4,44.6,29.99,SW,230,6.0,14.0,52,0.00,,CLR,0.00,VWS V13.01,2013-04-26 16:09:00,
2013-04-26 12:10:00,62.4,44.0,29.99,SW,222,2.0,14.0,51,0.00,,CLR,0.00,VWS V13.01,2013-04-26 16:10:00,
2013-04-26 12:11:00,62.4,44.0,29.99,SSE,148,10.0,16.0,51,0.00,,CLR,0.00,VWS V13.01,2013-04-26 16:11:00,
2013-04-26 12:12:00,62.4,44.0,29.99,SSE,150,0.0,16.0,51,0.00,,CLR,0.00,VWS V13.01,2013-04-26 16:12:00,
2013-04-26 12:14:00,62.6,44.2,29.99,South,172,6.0,24.0,51,0.00,,CLR,0.00,VWS V13.01,2013-04-26 16:14:00,
2013-04-26 12:15:00,62.6,44.2,29.99,WSW,258,12.0,24.0,51,0.00,,CLR,0.00,VWS V13.01,2013-04-26 16:15:00,
2013-04-26 12:17:00,62.6,44.2,29.99,SSE,160,8.0,16.0,51,0.00,,CLR,0.00,VWS V13.01,2013-04-26 16:17:00,
2013-04-26 12:18:00,62.6,44.2,29.99,WSW,253,12.0,16.0,51,0.00,,CLR,0.00,VWS V13.01,2013-04-26 16:18:00,
2013-04-26 12:20:00,62.6,43.7,29.99,SSE,155,2.0,14.0,50,0.00,,CLR,0.00,VWS V13.01,2013-04-26 16:20:00,
2013-04-26 12:22:00,62.7,44.3,29.99,SSE,155,0.0,0.0,51,0.00,,CLR,0.00,VWS V13.01,2013-04-26 16:22:00,
2013-04-26 12:23:00,62.9,44.5,29.99,SSE,155,0.0,2.0,51,0.00,,CLR,0.00,VWS V13.01,2013-04-26 16:23:00,
2013-04-26 12:25:00,63.1,44.2,29.99,SSE,161,6.0,24.0,50,0.00,,CLR,0.00,VWS V13.01,2013-04-26 16:25:00,
2013-04-26 12:26:00,63.1,44.2,29.99,SSW,208,2.0,24.0,50,0.00,,CLR,0.00,VWS V13.01,2013-04-26 16:26:00,
2013-04-26 12:28:00,63.1,44.2,29.99,SSW,196,4.0,12.0,50,0.00,,CLR,0.00,VWS V13.01,2013-04-26 16:28:00,
2013-04-26 12:30:00,63.1,44.2,29.99,South,178,6.0,16.0,50,0.00,,CLR,0.00,VWS V13.01,2013-04-26 16:30:00,
2013-04-26 12:31:00,63.1,44.7,29.99,South,178,4.0,10.0,51,0.00,,CLR,0.00,VWS V13.01,2013-04-26 16:31:00,
2013-04-26 12:33:00,63.2,44.8,29.99,SSE,168,6.0,20.0,51,0.00,,CLR,0.00,VWS V13.01,2013-04-26 16:33:00,
2013-04-26 12:34:00,63.2,44.3,29.99,SSE,164,0.0,16.0,50,0.00,,CLR,0.00,VWS V13.01,2013-04-26 16:34:00,
2013-04-26 12:35:00,63.2,44.8,29.99,SSE,164,4.0,16.0,51,0.00,,CLR,0.00,VWS V13.01,2013-04-26 16:35:00,
2013-04-26 12:36:00,63.2,44.8,29.99,SSW,195,10.0,12.0,51,0.00,,CLR,0.00,VWS V13.01,2013-04-26 16:36:00,
2013-04-26 12:38:00,63.4,44.5,29.99,SW,217,2.0,12.0,50,0.00,,CLR,0.00,VWS V13.01,2013-04-26 16:38:00,
2013-04-26 12:39:00,63.4,44.5,29.99,South,176,6.0,14.0,50,0.00,,CLR,0.00,VWS V13.01,2013-04-26 16:39:00,
2013-04-26 12:40:00,63.4,44.5,29.99,South,178,0.0,14.0,50,0.00,,CLR,0.00,VWS V13.01,2013-04-26 16:40:00,
2013-04-26 12:41:00,63.5,45.1,29.99,SE,137,0.0,12.0,51,0.00,,CLR,0.00,VWS V13.01,2013-04-26 16:41:00,
2013-04-26 12:43:00,63.7,45.2,29.99,SSE,168,8.0,8.0,51,0.00,,CLR,0.00,VWS V13.01,2013-04-26 16:43:00,
2013-04-26 12:44:00,63.7,44.7,29.99,SE,145,10.0,22.0,50,0.00,,CLR,0.00,VWS V13.01,2013-04-26 16:44:00,
2013-04-26 12:45:00,63.7,45.2,29.99,SSW,206,10.0,22.0,51,0.00,,CLR,0.00,VWS V13.01,2013-04-26 16:45:00,
2013-04-26 12:47:00,63.9,44.9,29.99,SSW,210,14.0,22.0,50,0.00,,CLR,0.00,VWS V13.01,2013-04-26 16:47:00,
2013-04-26 12:48:00,63.9,44.9,29.99,South,176,0.0,22.0,50,0.00,,CLR,0.00,VWS V13.01,2013-04-26 16:48:00,
2013-04-26 12:49:00,63.9,45.4,29.99,SSE,154,2.0,14.0,51,0.00,,CLR,0.00,VWS V13.01,2013-04-26 16:49:00,
2013-04-26 12:51:00,63.9,44.9,29.99,SE,144,14.0,26.0,50,0.00,,CLR,0.00,VWS V13.01,2013-04-26 16:51:00,
2013-04-26 12:52:00,63.9,44.4,29.99,South,169,0.0,26.0,49,0.00,,CLR,0.00,VWS V13.01,2013-04-26 16:52:00,
2013-04-26 12:53:00,64.0,45.0,29.99,South,181,2.0,14.0,50,0.00,,CLR,0.00,VWS V13.01,2013-04-26 16:53:00,
2013-04-26 12:55:00,64.2,44.7,29.99,WSW,251,4.0,16.0,49,0.00,,CLR,0.00,VWS V13.01,2013-04-26 16:55:00,
2013-04-26 12:56:00,64.2,44.7,29.99,WSW,248,2.0,16.0,49,0.00,,CLR,0.00,VWS V13.01,2013-04-26 16:56:00,
2013-04-26 12:58:00,64.2,44.7,29.99,SW,233,4.0,20.0,49,0.00,,CLR,0.00,VWS V13.01,2013-04-26 16:58:00,
2013-04-26 12:59:00,64.3,45.3,29.99,ESE,121,16.0,16.0,50,0.00,,CLR,0.00,VWS V13.01,2013-04-26 16:59:00,
2013-04-26 13:00:00,64.3,45.3,29.99,SSE,147,2.0,16.0,50,0.00,,CLR,0.00,VWS V13.01,2013-04-26 17:00:00,
2013-04-26 13:01:00,64.7,45.7,29.99,South,181,4.0,16.0,50,0.00,,CLR,0.00,VWS V13.01,2013-04-26 17:01:00,
2013-04-26 13:03:00,64.8,45.2,29.99,SSE,160,6.0,14.0,49,0.00,,CLR,0.00,VWS V13.01,2013-04-26 17:03:00,
2013-04-26 13:04:00,65.0,44.8,29.99,South,186,8.0,10.0,48,0.00,,CLR,0.00,VWS V13.01,2013-04-26 17:04:00,
2013-04-26 13:05:00,65.0,44.3,29.99,SSW,192,2.0,14.0,47,0.00,,CLR,0.00,VWS V13.01,2013-04-26 17:05:00,
2013-04-26 13:06:00,65.2,44.5,29.99,SSW,192,0.0,14.0,47,0.00,,CLR,0.00,VWS V13.01,2013-04-26 17:06:00,
2013-04-26 13:07:00,65.2,43.9,29.99,SW,215,6.0,12.0,46,0.00,,CLR,0.00,VWS V13.01,2013-04-26 17:07:00,
2013-04-26 13:08:00,65.5,45.3,29.99,SE,136,0.0,12.0,48,0.00,,CLR,0.00,VWS V13.01,2013-04-26 17:08:00,
2013-04-26 13:09:00,65.6,44.8,29.99,SSW,210,8.0,8.0,47,0.00,,CLR,0.00,VWS V13.01,2013-04-26 17:09:00,
2013-04-26 13:10:00,65.8,44.5,29.99,SW,219,0.0,10.0,46,0.00,,CLR,0.00,VWS V13.01,2013-04-26 17:10:00,
2013-04-26 13:11:00,66.0,45.2,29.99,SSE,168,2.0,10.0,47,0.00,,CLR,0.00,VWS V13.01,2013-04-26 17:11:00,
2013-04-26 13:12:00,66.0,45.2,29.99,SSE,162,6.0,12.0,47,0.00,,CLR,0.00,VWS V13.01,2013-04-26 17:12:00,
2013-04-26 13:13:00,66.1,44.7,29.99,South,179,0.0,14.0,46,0.00,,CLR,0.00,VWS V13.01,2013-04-26 17:13:00,
2013-04-26 13:14:00,66.3,44.9,29.99,South,174,14.0,14.0,46,0.00,,CLR,0.00,VWS V13.01,2013-04-26 17:14:00,
2013-04-26 13:15:00,66.3,44.9,29.99,ESE,123,14.0,14.0,46,0.00,,CLR,0.00,VWS V13.01,2013-04-26 17:15:00,
2013-04-26 13:17:00,66.4,45.0,29.99,South,188,4.0,14.0,46,0.00,,CLR,0.00,VWS V13.01,2013-04-26 17:17:00,
2013-04-26 13:18:00,66.6,44.6,29.99,SSE,162,4.0,6.0,45,0.00,,CLR,0.00,VWS V13.01,2013-04-26 17:18:00,
2013-04-26 13:19:00,66.8,44.8,29.99,South,191,0.0,10.0,45,0.00,,CLR,0.00,VWS V13.01,2013-04-26 17:19:00,
2013-04-26 13:20:00,66.9,45.5,29.99,SW,232,2.0,10.0,46,0.00,,CLR,0.00,VWS V13.01,2013-04-26 17:20:00,
2013-04-26 13:22:00,66.9,44.3,29.99,SSE,167,0.0,10.0,44,0.00,,CLR,0.00,VWS V13.01,2013-04-26 17:22:00,
2013-04-26 13:24:00,67.3,45.8,29.99,SE,134,4.0,6.0,46,0.00,,CLR,0.00,VWS V13.01,2013-04-26 17:24:00,
2013-04-26 13:25:00,67.4,45.3,29.99,SW,224,6.0,6.0,45,0.00,,CLR,0.00,VWS V13.01,2013-04-26 17:25:00,
2013-04-26 13:27:00,67.6,45.5,29.99,SE,144,4.0,14.0,45,0.00,,CLR,0.00,VWS V13.01,2013-04-26 17:27:00,
2013-04-26 13:29:00,67.6,44.9,29.99,SSE,167,4.0,10.0,44,0.00,,CLR,0.00,VWS V13.01,2013-04-26 17:29:00,
2013-04-26 13:30:00,67.6,44.3,29.99,SSE,167,2.0,6.0,43,0.00,,CLR,0.00,VWS V13.01,2013-04-26 17:30:00,
2013-04-26 13:31:00,67.8,44.5,29.98,ESE,120,2.0,6.0,43,0.00,,CLR,0.00,VWS V13.01,2013-04-26 17:31:00,
2013-04-26 13:32:00,67.8,44.5,29.98,SSE,162,12.0,20.0,43,0.00,,CLR,0.00,VWS V13.01,2013-04-26 17:32:00,
2013-04-26 13:34:00,67.9,44.6,29.98,SE,140,0.0,20.0,43,0.00,,CLR,0.00,VWS V13.01,2013-04-26 17:34:00,
2013-04-26 13:35:00,68.1,45.4,29.98,SE,140,0.0,12.0,44,0.00,,CLR,0.00,VWS V13.01,2013-04-26 17:35:00,
2013-04-26 13:36:00,68.3,46.2,29.98,WSW,251,12.0,12.0,45,0.00,,CLR,0.00,VWS V13.01,2013-04-26 17:36:00,
2013-04-26 13:37:00,68.3,44.3,29.98,South,169,4.0,14.0,42,0.00,,CLR,0.00,VWS V13.01,2013-04-26 17:37:00,
2013-04-26 13:39:00,68.3,45.0,29.98,SSE,154,10.0,18.0,43,0.00,,CLR,0.00,VWS V13.01,2013-04-26 17:39:00,
2013-04-26 13:40:00,68.3,44.3,29.98,SSE,148,10.0,26.0,42,0.00,,CLR,0.00,VWS V13.01,2013-04-26 17:40:00,
2013-04-26 13:41:00,68.3,45.0,29.98,SSW,208,2.0,26.0,43,0.00,,CLR,0.00,VWS V13.01,2013-04-26 17:41:00,
2013-04-26 13:43:00,68.3,45.0,29.98,South,181,10.0,16.0,43,0.00,,CLR,0.00,VWS V13.01,2013-04-26 17:43:00,
2013-04-26 13:45:00,68.3,45.0,29.98,SSE,165,6.0,10.0,43,0.00,,CLR,0.00,VWS V13.01,2013-04-26 17:45:00,
2013-04-26 13:47:00,68.3,45.0,29.98,WSW,243,8.0,12.0,43,0.00,,CLR,0.00,VWS V13.01,2013-04-26 17:47:00,
2013-04-26 13:48:00,68.1,44.8,29.98,WSW,243,8.0,10.0,43,0.00,,CLR,0.00,VWS V13.01,2013-04-26 17:48:00,
2013-04-26 13:50:00,68.3,45.6,29.98,SSW,192,4.0,10.0,44,0.00,,CLR,0.00,VWS V13.01,2013-04-26 17:50:00,
2013-04-26 13:52:00,68.3,45.0,29.98,SSE,154,4.0,6.0,43,0.00,,CLR,0.00,VWS V13.01,2013-04-26 17:52:00,
2013-04-26 13:53:00,68.3,45.0,29.98,SW,227,12.0,12.0,43,0.00,,CLR,0.00,VWS V13.01,2013-04-26 17:53:00,
2013-04-26 13:55:00,68.4,44.4,29.98,South,186,0.0,14.0,42,0.00,,CLR,0.00,VWS V13.01,2013-04-26 17:55:00,
2013-04-26 13:57:00,68.4,44.4,29.98,South,189,0.0,6.0,42,0.00,,CLR,0.00,VWS V13.01,2013-04-26 17:57:00,
2013-04-26 13:58:00,68.6,44.6,29.98,WSW,248,2.0,4.0,42,0.00,,CLR,0.00,VWS V13.01,2013-04-26 17:58:00,
2013-04-26 14:00:00,68.6,44.0,29.98,WSW,251,12.0,12.0,41,0.00,,CLR,0.00,VWS V13.01,2013-04-26 18:00:00,
2013-04-26 14:02:00,68.6,43.3,29.98,SSW,195,6.0,14.0,40,0.00,,CLR,0.00,VWS V13.01,2013-04-26 18:02:00,
2013-04-26 14:03:00,68.6,44.0,29.98,SSW,195,2.0,10.0,41,0.00,,CLR,0.00,VWS V13.01,2013-04-26 18:03:00,
2013-04-26 14:04:00,68.6,44.0,29.98,WSW,250,10.0,12.0,41,0.00,,CLR,0.00,VWS V13.01,2013-04-26 18:04:00,
2013-04-26 14:05:00,68.6,43.3,29.98,WSW,240,8.0,12.0,40,0.00,,CLR,0.00,VWS V13.01,2013-04-26 18:05:00,
2013-04-26 14:06:00,68.6,43.3,29.98,WSW,240,0.0,12.0,40,0.00,,CLR,0.00,VWS V13.01,2013-04-26 18:06:00,
2013-04-26 14:07:00,68.8,43.5,29.98,SSE,167,8.0,12.0,40,0.00,,CLR,0.00,VWS V13.01,2013-04-26 18:07:00,
2013-04-26 14:08:00,68.8,43.5,29.98,South,169,0.0,12.0,40,0.00,,CLR,0.00,VWS V13.01,2013-04-26 18:08:00,
2013-04-26 14:09:00,68.9,44.2,29.98,South,169,0.0,12.0,41,0.00,,CLR,0.00,VWS V13.01,2013-04-26 18:09:00,
2013-04-26 14:10:00,68.9,44.2,29.98,SSE,147,4.0,16.0,41,0.00,,CLR,0.00,VWS V13.01,2013-04-26 18:10:00,
2013-04-26 14:11:00,68.9,43.6,29.98,ESE,114,2.0,16.0,40,0.00,,CLR,0.00,VWS V13.01,2013-04-26 18:11:00,
2013-04-26 14:12:00,68.9,43.6,29.98,ESE,110,2.0,12.0,40,0.00,,CLR,0.00,VWS V13.01,2013-04-26 18:12:00,
2013-04-26 14:13:00,69.1,44.4,29.98,ESE,110,0.0,12.0,41,0.00,,CLR,0.00,VWS V13.01,2013-04-26 18:13:00,
2013-04-26 14:14:00,69.1,44.4,29.98,ESE,110,0.0,12.0,41,0.00,,CLR,0.00,VWS V13.01,2013-04-26 18:14:00,
2013-04-26 14:15:00,69.3,45.2,29.98,ESE,121,4.0,6.0,42,0.00,,CLR,0.00,VWS V13.01,2013-04-26 18:15:00,
2013-04-26 14:16:00,69.3,44.0,29.98,ESE,123,0.0,6.0,40,0.00,,CLR,0.00,VWS V13.01,2013-04-26 18:16:00,
2013-04-26 14:18:00,69.3,43.3,29.98,ESE,123,0.0,4.0,39,0.00,,CLR,0.00,VWS V13.01,2013-04-26 18:18:00,
2013-04-26 14:19:00,69.3,43.3,29.98,ESE,123,0.0,4.0,39,0.00,,CLR,0.00,VWS V13.01,2013-04-26 18:19:00,
2013-04-26 14:21:00,69.6,43.6,29.98,SSW,198,8.0,14.0,39,0.00,,CLR,0.00,VWS V13.01,2013-04-26 18:21:00,
2013-04-26 14:24:00,69.6,44.2,29.98,SSE,155,2.0,20.0,40,0.00,,CLR,0.00,VWS V13.01,2013-04-26 18:24:00,
2013-04-26 14:25:00,69.6,44.2,29.98,SSE,157,0.0,20.0,40,0.00,,CLR,0.00,VWS V13.01,2013-04-26 18:25:00,
2013-04-26 14:26:00,69.6,44.9,29.98,SSE,167,6.0,22.0,41,0.00,,CLR,0.00,VWS V13.01,2013-04-26 18:26:00,
2013-04-26 14:27:00,69.6,44.9,29.98,SSE,167,4.0,22.0,41,0.00,,CLR,0.00,VWS V13.01,2013-04-26 18:27:00,
2013-04-26 14:29:00,69.6,45.5,29.98,SSW,202,4.0,24.0,42,0.00,,CLR,0.00,VWS V13.01,2013-04-26 18:29:00,
2013-04-26 14:30:00,69.6,44.9,29.98,SSE,151,4.0,24.0,41,0.00,,CLR,0.00,VWS V13.01,2013-04-26 18:30:00,
2013-04-26 14:32:00,69.6,44.9,29.97,SSW,195,6.0,16.0,41,0.00,,CLR,0.00,VWS V13.01,2013-04-26 18:32:00,
2013-04-26 14:34:00,69.4,45.3,29.97,SSW,206,0.0,16.0,42,0.00,,CLR,0.00,VWS V13.01,2013-04-26 18:34:00,
2013-04-26 14:35:00,69.6,44.9,29.97,SW,226,4.0,10.0,41,0.00,,CLR,0.00,VWS V13.01,2013-04-26 18:35:00,
2013-04-26 14:37:00,69.6,45.5,29.97,SSW,213,4.0,10.0,42,0.00,,CLR,0.00,VWS V13.01,2013-04-26 18:37:00,
2013-04-26 14:40:00,69.6,44.9,29.97,South,178,2.0,16.0,41,0.00,,CLR,0.00,VWS V13.01,2013-04-26 18:40:00,
2013-04-26 14:41:00,69.6,45.5,29.97,South,178,4.0,16.0,42,0.00,,CLR,0.00,VWS V13.01,2013-04-26 18:41:00,
2013-04-26 14:42:00,69.4,45.3,29.97,South,178,14.0,22.0,42,0.00,,CLR,0.00,VWS V13.01,2013-04-26 18:42:00,
2013-04-26 14:43:00,69.4,44.7,29.97,SE,136,10.0,22.0,41,0.00,,CLR,0.00,VWS V13.01,2013-04-26 18:43:00,
2013-04-26 14:46:00,69.3,45.2,29.97,SSW,198,0.0,10.0,42,0.00,,CLR,0.00,VWS V13.01,2013-04-26 18:46:00,
2013-04-26 14:47:00,69.3,45.2,29.97,South,175,6.0,6.0,42,0.00,,CLR,0.00,VWS V13.01,2013-04-26 18:47:00,
2013-04-26 14:48:00,69.3,45.2,29.97,SSW,205,6.0,8.0,42,0.00,,CLR,0.00,VWS V13.01,2013-04-26 18:48:00,
2013-04-26 14:51:00,69.1,45.7,29.97,WSW,243,0.0,12.0,43,0.00,,CLR,0.00,VWS V13.01,2013-04-26 18:51:00,
2013-04-26 14:52:00,69.3,45.9,29.97,South,188,4.0,4.0,43,0.00,,CLR,0.00,VWS V13.01,2013-04-26 18:52:00,
2013-04-26 14:53:00,69.3,45.9,29.97,SSW,195,10.0,14.0,43,0.00,,CLR,0.00,VWS V13.01,2013-04-26 18:53:00,
2013-04-26 14:56:00,69.4,45.3,29.97,SSE,157,2.0,4.0,42,0.00,,CLR,0.00,VWS V13.01,2013-04-26 18:56:00,
2013-04-26 14:57:00,69.4,44.7,29.97,West,272,6.0,10.0,41,0.00,,CLR,0.00,VWS V13.01,2013-04-26 18:57:00,
2013-04-26 14:58:00,69.4,44.7,29.97,West,265,6.0,10.0,41,0.00,,CLR,0.00,VWS V13.01,2013-04-26 18:58:00,
2013-04-26 15:00:00,69.6,44.9,29.97,West,260,10.0,10.0,41,0.00,,SCT055,0.00,VWS V14.01,2013-04-26 19:00:00,
2013-04-26 15:01:00,69.6,45.5,29.97,SSW,213,0.0,12.0,42,0.00,,CLR,0.00,VWS V13.01,2013-04-26 19:01:00,
2013-04-26 15:02:00,69.6,44.2,29.97,West,260,4.0,10.0,40,0.00,,CLR,0.00,VWS V13.01,2013-04-26 19:02:00,
2013-04-26 15:03:00,69.6,44.9,29.97,SSW,200,2.0,10.0,41,0.00,,CLR,0.00,VWS V13.01,2013-04-26 19:03:00,
2013-04-26 15:06:00,69.6,44.9,29.97,SSE,168,0.0,8.0,41,0.00,,CLR,0.00,VWS V13.01,2013-04-26 19:06:00,
2013-04-26 15:07:00,69.8,45.1,29.97,SSE,168,0.0,6.0,41,0.00,,CLR,0.00,VWS V13.01,2013-04-26 19:07:00,
2013-04-26 15:08:00,69.8,45.1,29.97,ESE,113,0.0,4.0,41,0.00,,CLR,0.00,VWS V13.01,2013-04-26 19:08:00,
2013-04-26 15:09:00,69.8,45.1,29.97,SE,130,2.0,6.0,41,0.00,,CLR,0.00,VWS V13.01,2013-04-26 19:09:00,
2013-04-26 15:12:00,69.9,45.2,29.97,SE,141,0.0,4.0,41,0.00,,CLR,0.00,VWS V13.01,2013-04-26 19:12:00,
2013-04-26 15:14:00,69.9,45.2,29.97,SSE,154,4.0,6.0,41,0.00,,CLR,0.00,VWS V13.01,2013-04-26 19:14:00,
2013-04-26 15:17:00,69.9,45.2,29.97,WSW,241,0.0,10.0,41,0.00,,CLR,0.00,VWS V13.01,2013-04-26 19:17:00,
2013-04-26 15:19:00,69.8,45.7,29.97,South,188,2.0,6.0,42,0.00,,CLR,0.00,VWS V13.01,2013-04-26 19:19:00,
2013-04-26 15:22:00,69.8,46.3,29.97,South,188,12.0,22.0,43,0.00,,CLR,0.00,VWS V13.01,2013-04-26 19:22:00,
2013-04-26 15:23:00,69.6,45.5,29.97,SSW,192,12.0,22.0,42,0.00,,CLR,0.00,VWS V13.01,2013-04-26 19:23:00,
2013-04-26 15:24:00,69.6,46.1,29.97,SSE,160,0.0,14.0,43,0.00,,CLR,0.00,VWS V13.01,2013-04-26 19:24:00,
2013-04-26 15:27:00,69.6,46.1,29.97,SSE,162,0.0,0.0,43,0.00,,CLR,0.00,VWS V13.01,2013-04-26 19:27:00,
2013-04-26 15:28:00,69.6,46.1,29.97,SE,138,0.0,2.0,43,0.00,,CLR,0.00,VWS V13.01,2013-04-26 19:28:00,
2013-04-26 15:29:00,69.4,45.3,29.97,WNW,282,14.0,14.0,42,0.00,,CLR,0.00,VWS V13.01,2013-04-26 19:29:00,
2013-04-26 15:30:00,69.3,45.9,29.97,South,169,4.0,12.0,43,0.00,,SCT055,0.00,VWS V14.01,2013-04-26 19:30:00,
2013-04-26 15:31:00,69.4,46.0,29.97,SSW,198,0.0,14.0,43,0.00,,CLR,0.00,VWS V13.01,2013-04-26 19:31:00,
2013-04-26 15:32:00,69.3,45.9,29.97,South,169,0.0,6.0,43,0.00,,CLR,0.00,VWS V13.01,2013-04-26 19:32:00,
2013-04-26 15:33:00,69.3,45.9,29.97,South,172,0.0,6.0,43,0.00,,CLR,0.00,VWS V13.01,2013-04-26 19:33:00,
2013-04-26 15:35:00,69.3,45.9,29.97,South,172,0.0,8.0,43,0.00,,CLR,0.00,VWS V13.01,2013-04-26 19:35:00,
2013-04-26 15:36:00,69.3,45.2,29.97,South,172,0.0,8.0,42,0.00,,CLR,0.00,VWS V13.01,2013-04-26 19:36:00,
2013-04-26 15:37:00,69.3,45.9,29.97,South,172,0.0,4.0,43,0.00,,CLR,0.00,VWS V13.01,2013-04-26 19:37:00,
2013-04-26 15:38:00,69.3,45.9,29.97,South,178,0.0,12.0,43,0.00,,CLR,0.00,VWS V13.01,2013-04-26 19:38:00,
2013-04-26 15:39:00,69.3,45.9,29.97,South,184,8.0,12.0,43,0.00,,CLR,0.00,VWS V13.01,2013-04-26 19:39:00,
2013-04-26 15:40:00,69.3,46.5,29.97,SSE,158,6.0,12.0,44,0.00,,CLR,0.00,VWS V13.01,2013-04-26 19:40:00,
2013-04-26 15:41:00,69.3,46.5,29.97,South,184,0.0,12.0,44,0.00,,CLR,0.00,VWS V13.01,2013-04-26 19:41:00,
2013-04-26 15:42:00,69.3,46.5,29.97,South,189,20.0,20.0,44,0.00,,CLR,0.00,VWS V13.01,2013-04-26 19:42:00,
2013-04-26 15:43:00,69.1,46.3,29.97,South,182,2.0,20.0,44,0.00,,CLR,0.00,VWS V13.01,2013-04-26 19:43:00,
2013-04-26 15:44:00,69.1,46.3,29.97,SSE,150,4.0,20.0,44,0.00,,CLR,0.00,VWS V13.01,2013-04-26 19:44:00,
2013-04-26 15:45:00,69.1,46.9,29.97,SSE,151,0.0,10.0,45,0.00,,CLR,0.00,VWS V13.01,2013-04-26 19:45:00,
2013-04-26 15:46:00,69.1,46.9,29.97,SSE,154,10.0,16.0,45,0.00,,CLR,0.00,VWS V13.01,2013-04-26 19:46:00,
2013-04-26 15:47:00,68.9,46.1,29.97,SSE,161,2.0,16.0,44,0.00,,CLR,0.00,VWS V13.01,2013-04-26 19:47:00,
2013-04-26 15:49:00,68.9,46.7,29.97,SSW,195,12.0,12.0,45,0.00,,CLR,0.00,VWS V13.01,2013-04-26 19:49:00,
2013-04-26 15:51:00,68.9,46.7,29.97,South,184,16.0,16.0,45,0.00,,CLR,0.00,VWS V13.01,2013-04-26 19:51:00,
2013-04-26 15:53:00,68.8,46.6,29.97,SE,140,0.0,12.0,45,0.00,,CLR,0.00,VWS V13.01,2013-04-26 19:53:00,
2013-04-26 15:54:00,68.8,47.2,29.97,SSE,155,4.0,6.0,46,0.00,,CLR,0.00,VWS V13.01,2013-04-26 19:54:00,
2013-04-26 15:55:00,68.8,47.2,29.97,SSE,155,0.0,6.0,46,0.00,,CLR,0.00,VWS V13.01,2013-04-26 19:55:00,
2013-04-26 15:56:00,68.6,46.4,29.97,SSE,155,0.0,2.0,45,0.00,,CLR,0.00,VWS V13.01,2013-04-26 19:56:00,
2013-04-26 15:58:00,68.8,47.2,29.97,SSE,155,0.0,0.0,46,0.00,,CLR,0.00,VWS V13.01,2013-04-26 19:58:00,
2013-04-26 15:59:00,68.8,47.2,29.97,SSE,155,2.0,2.0,46,0.00,,CLR,0.00,VWS V13.01,2013-04-26 19:59:00,
2013-04-26 16:00:00,68.8,47.2,29.97,SSE,161,0.0,6.0,46,0.00,,CLR,0.00,VWS V13.01,2013-04-26 20:00:00,
2013-04-26 16:01:00,68.8,47.2,29.97,SSE,161,0.0,6.0,46,0.00,,CLR,0.00,VWS V13.01,2013-04-26 20:01:00,
2013-04-26 16:03:00,68.9,47.3,29.97,SSE,164,4.0,16.0,46,0.00,,CLR,0.00,VWS V13.01,2013-04-26 20:03:00,
2013-04-26 16:04:00,68.9,47.3,29.97,SSE,164,0.0,16.0,46,0.00,,CLR,0.00,VWS V13.01,2013-04-26 20:04:00,
2013-04-26 16:05:00,68.9,47.9,29.97,SSE,164,0.0,2.0,47,0.00,,CLR,0.00,VWS V13.01,2013-04-26 20:05:00,
2013-04-26 16:06:00,68.9,47.9,29.97,South,186,4.0,6.0,47,0.00,,CLR,0.00,VWS V13.01,2013-04-26 20:06:00,
2013-04-26 16:09:00,68.9,47.3,29.97,SSE,164,4.0,10.0,46,0.00,,CLR,0.00,VWS V13.01,2013-04-26 20:09:00,
2013-04-26 16:10:00,68.9,47.3,29.97,WSW,239,6.0,6.0,46,0.00,,CLR,0.00,VWS V13.01,2013-04-26 20:10:00,
2013-04-26 16:11:00,68.9,47.3,29.97,WSW,239,0.0,6.0,46,0.00,,CLR,0.00,VWS V13.01,2013-04-26 20:11:00,
2013-04-26 16:12:00,68.9,47.3,29.97,South,172,2.0,6.0,46,0.00,,CLR,0.00,VWS V13.01,2013-04-26 20:12:00,
2013-04-26 16:14:00,68.9,47.3,29.97,SSW,202,2.0,12.0,46,0.00,,CLR,0.00,VWS V13.01,2013-04-26 20:14:00,
2013-04-26 16:15:00,68.9,47.3,29.97,SSW,208,6.0,6.0,46,0.00,,CLR,0.00,VWS V13.01,2013-04-26 20:15:00,
2013-04-26 16:16:00,68.9,47.3,29.97,South,179,0.0,6.0,46,0.00,,CLR,0.00,VWS V13.01,2013-04-26 20:16:00,
2013-04-26 16:17:00,68.9,47.9,29.97,South,174,10.0,10.0,47,0.00,,CLR,0.00,VWS V13.01,2013-04-26 20:17:00,
2013-04-26 16:19:00,68.9,47.3,29.97,South,176,0.0,12.0,46,0.00,,CLR,0.00,VWS V13.01,2013-04-26 20:19:00,
2013-04-26 16:20:00,68.9,47.3,29.97,SE,141,6.0,14.0,46,0.00,,CLR,0.00,VWS V13.01,2013-04-26 20:20:00,
2013-04-26 16:21:00,68.9,47.3,29.97,SSE,165,10.0,14.0,46,0.00,,CLR,0.00,VWS V13.01,2013-04-26 20:21:00,
2013-04-26 16:22:00,68.9,47.3,29.97,SSE,147,6.0,16.0,46,0.00,,CLR,0.00,VWS V13.01,2013-04-26 20:22:00,
2013-04-26 16:24:00,68.9,47.9,29.97,South,185,14.0,14.0,47,0.00,,CLR,0.00,VWS V13.01,2013-04-26 20:24:00,
2013-04-26 16:25:00,69.1,48.0,29.97,SE,127,2.0,14.0,47,0.00,,CLR,0.00,VWS V13.01,2013-04-26 20:25:00,
2013-04-26 16:26:00,68.9,47.3,29.97,South,174,0.0,12.0,46,0.00,,CLR,0.00,VWS V13.01,2013-04-26 20:26:00,
2013-04-26 16:27:00,68.9,47.3,29.97,South,178,8.0,12.0,46,0.00,,CLR,0.00,VWS V13.01,2013-04-26 20:27:00,
2013-04-26 16:29:00,68.9,47.3,29.97,SSE,160,4.0,4.0,46,0.00,,CLR,0.00,VWS V13.01,2013-04-26 20:29:00,
2013-04-26 16:30:00,68.9,47.9,29.97,SE,137,6.0,12.0,47,0.00,,SCT055,0.00,VWS V14.01,2013-04-26 20:30:00,
2013-04-26 16:31:00,68.9,47.9,29.97,SE,126,12.0,12.0,47,0.00,,CLR,0.00,VWS V13.01,2013-04-26 20:31:00,
2013-04-26 16:32:00,68.9,47.9,29.97,ESE,117,12.0,14.0,47,0.00,,CLR,0.00,VWS V13.01,2013-04-26 20:32:00,
2013-04-26 16:34:00,68.9,47.3,29.97,SW,227,6.0,16.0,46,0.00,,CLR,0.00,VWS V13.01,2013-04-26 20:34:00,
2013-04-26 16:36:00,68.8,47.2,29.97,South,188,4.0,14.0,46,0.00,,CLR,0.00,VWS V13.01,2013-04-26 20:36:00,
2013-04-26 16:37:00,68.8,47.2,29.97,SSE,165,4.0,4.0,46,0.00,,CLR,0.00,VWS V13.01,2013-04-26 20:37:00,
2013-04-26 16:38:00,68.8,47.2,29.97,SE,145,2.0,4.0,46,0.00,,CLR,0.00,VWS V13.01,2013-04-26 20:38:00,
2013-04-26 16:40:00,68.8,46.6,29.97,SE,145,0.0,2.0,45,0.00,,CLR,0.00,VWS V13.01,2013-04-26 20:40:00,
2013-04-26 16:41:00,68.8,47.2,29.97,SSE,151,2.0,6.0,46,0.00,,CLR,0.00,VWS V13.01,2013-04-26 20:41:00,
2013-04-26 16:42:00,68.9,47.3,29.97,SSE,160,0.0,8.0,46,0.00,,CLR,0.00,VWS V13.01,2013-04-26 20:42:00,
2013-04-26 16:43:00,68.9,47.3,29.97,SSE,160,0.0,8.0,46,0.00,,CLR,0.00,VWS V13.01,2013-04-26 20:43:00,
2013-04-26 16:45:00,69.3,48.2,29.97,SW,236,2.0,6.0,47,0.00,,CLR,0.00,VWS V13.01,2013-04-26 20:45:00,
2013-04-26 16:46:00,69.3,47.7,29.97,SSW,208,4.0,6.0,46,0.00,,CLR,0.00,VWS V13.01,2013-04-26 20:46:00,
2013-04-26 16:48:00,69.4,47.2,29.97,SSW,210,4.0,4.0,45,0.00,,CLR,0.00,VWS V13.01,2013-04-26 20:48:00,
2013-04-26 16:49:00,69.4,46.6,29.97,SSW,209,0.0,4.0,44,0.00,,CLR,0.00,VWS V13.01,2013-04-26 20:49:00,
2013-04-26 16:50:00,69.4,46.6,29.97,SW,236,0.0,6.0,44,0.00,,CLR,0.00,VWS V13.01,2013-04-26 20:50:00,
2013-04-26 16:52:00,69.6,47.3,29.97,South,172,6.0,12.0,45,0.00,,CLR,0.00,VWS V13.01,2013-04-26 20:52:00,
2013-04-26 16:53:00,69.8,47.5,29.97,SSE,168,0.0,12.0,45,0.00,,CLR,0.00,VWS V13.01,2013-04-26 20:53:00,
2013-04-26 16:54:00,69.8,46.9,29.97,SSE,168,0.0,8.0,44,0.00,,CLR,0.00,VWS V13.01,2013-04-26 20:54:00,
2013-04-26 16:55:00,69.8,46.9,29.97,South,169,6.0,6.0,44,0.00,,CLR,0.00,VWS V13.01,2013-04-26 20:55:00,
2013-04-26 16:57:00,69.8,47.5,29.97,SSE,167,0.0,8.0,45,0.00,,CLR,0.00,VWS V13.01,2013-04-26 20:57:00,
2013-04-26 16:58:00,69.8,47.5,29.97,SSE,167,0.0,8.0,45,0.00,,CLR,0.00,VWS V13.01,2013-04-26 20:58:00,
2013-04-26 16:59:00,69.8,47.5,29.97,SE,143,6.0,10.0,45,0.00,,CLR,0.00,VWS V13.01,2013-04-26 20:59:00,
2013-04-26 17:00:00,69.8,48.1,29.97,SSE,151,12.0,16.0,46,0.00,,CLR,0.00,VWS V13.01,2013-04-26 21:00:00,
2013-04-26 17:02:00,69.8,48.1,29.97,SSE,161,0.0,16.0,46,0.00,,CLR,0.00,VWS V13.01,2013-04-26 21:02:00,
2013-04-26 17:03:00,69.8,48.1,29.97,SSE,164,0.0,10.0,46,0.00,,CLR,0.00,VWS V13.01,2013-04-26 21:03:00,
2013-04-26 17:04:00,69.8,48.1,29.97,SE,133,10.0,10.0,46,0.00,,CLR,0.00,VWS V13.01,2013-04-26 21:04:00,
2013-04-26 17:05:00,69.8,48.1,29.97,SW,220,10.0,16.0,46,0.00,,CLR,0.00,VWS V13.01,2013-04-26 21:05:00,
2013-04-26 17:07:00,69.6,48.5,29.97,SW,220,0.0,14.0,47,0.00,,CLR,0.00,VWS V13.01,2013-04-26 21:07:00,
2013-04-26 17:08:00,69.6,47.9,29.97,SW,220,2.0,10.0,46,0.00,,CLR,0.00,VWS V13.01,2013-04-26 21:08:00,
2013-04-26 17:10:00,69.6,47.9,29.97,SW,220,0.0,10.0,46,0.00,,CLR,0.00,VWS V13.01,2013-04-26 21:10:00,
2013-04-26 17:11:00,69.6,47.9,29.97,SSE,154,4.0,12.0,46,0.00,,CLR,0.00,VWS V13.01,2013-04-26 21:11:00,
2013-04-26 17:12:00,69.4,47.7,29.97,SSW,195,4.0,14.0,46,0.00,,CLR,0.00,VWS V13.01,2013-04-26 21:12:00,
2013-04-26 17:14:00,69.4,48.3,29.97,South,185,10.0,14.0,47,0.00,,CLR,0.00,VWS V13.01,2013-04-26 21:14:00,
2013-04-26 17:15:00,69.3,47.7,29.97,South,182,12.0,12.0,46,0.00,,CLR,0.00,VWS V13.01,2013-04-26 21:15:00,
2013-04-26 17:16:00,69.3,48.2,29.98,South,185,20.0,20.0,47,0.00,,CLR,0.00,VWS V13.01,2013-04-26 21:16:00,
2013-04-26 17:17:00,69.1,48.0,29.98,SSE,157,4.0,20.0,47,0.00,,CLR,0.00,VWS V13.01,2013-04-26 21:17:00,
2013-04-26 17:19:00,69.1,48.0,29.98,South,179,6.0,14.0,47,0.00,,CLR,0.00,VWS V13.01,2013-04-26 21:19:00,
2013-04-26 17:20:00,68.9,47.9,29.98,SSE,150,2.0,14.0,47,0.00,,CLR,0.00,VWS V13.01,2013-04-26 21:20:00,
2013-04-26 17:21:00,68.9,47.9,29.98,SSE,162,4.0,10.0,47,0.00,,CLR,0.00,VWS V13.01,2013-04-26 21:21:00,
2013-04-26 17:23:00,68.9,47.9,29.98,SSE,147,2.0,10.0,47,0.00,,CLR,0.00,VWS V13.01,2013-04-26 21:23:00,
2013-04-26 17:25:00,68.8,47.8,29.98,SSE,151,0.0,8.0,47,0.00,,CLR,0.00,VWS V13.01,2013-04-26 21:25:00,
2013-04-26 17:27:00,68.6,47.6,29.98,South,185,4.0,12.0,47,0.00,,CLR,0.00,VWS V13.01,2013-04-26 21:27:00,
2013-04-26 17:28:00,68.6,47.6,29.98,South,176,6.0,12.0,47,0.00,,CLR,0.00,VWS V13.01,2013-04-26 21:28:00,
2013-04-26 17:30:00,68.4,48.0,29.98,South,182,0.0,6.0,48,0.00,,CLR,0.00,VWS V13.01,2013-04-26 21:30:00,
2013-04-26 17:31:00,68.4,48.0,29.98,South,182,0.0,2.0,48,0.00,,CLR,0.00,VWS V13.01,2013-04-26 21:31:00,
2013-04-26 17:32:00,68.4,48.0,29.98,South,182,0.0,2.0,48,0.00,,CLR,0.00,VWS V13.01,2013-04-26 21:32:00,
2013-04-26 17:33:00,68.4,48.0,29.98,SE,144,12.0,14.0,48,0.00,,CLR,0.00,VWS V13.01,2013-04-26 21:33:00,
2013-04-26 17:35:00,68.4,48.0,29.98,South,172,2.0,14.0,48,0.00,,CLR,0.00,VWS V13.01,2013-04-26 21:35:00,
2013-04-26 17:36:00,68.4,48.0,29.98,South,172,0.0,12.0,48,0.00,,CLR,0.00,VWS V13.01,2013-04-26 21:36:00,
2013-04-26 17:37:00,68.4,48.0,29.98,SSE,157,0.0,6.0,48,0.00,,SCT050,0.00,VWS V13.01,2013-04-26 21:37:00,
2013-04-26 17:39:00,68.4,48.5,29.98,SSW,199,8.0,10.0,49,0.00,,SCT050,0.00,VWS V13.01,2013-04-26 21:39:00,
2013-04-26 17:41:00,68.4,48.0,29.98,South,184,10.0,14.0,48,0.00,,SCT050,0.00,VWS V13.01,2013-04-26 21:41:00,
2013-04-26 17:42:00,68.3,47.9,29.98,ESE,123,8.0,14.0,48,0.00,,SCT050,0.00,VWS V13.01,2013-04-26 21:42:00,
2013-04-26 17:43:00,68.3,47.9,29.98,SSE,148,4.0,12.0,48,0.00,,SCT050,0.00,VWS V13.01,2013-04-26 21:43:00,
2013-04-26 17:44:00,68.3,47.9,29.98,SSE,151,2.0,12.0,48,0.00,,SCT050,0.00,VWS V13.01,2013-04-26 21:44:00,
2013-04-26 17:46:00,68.3,47.9,29.98,SSE,165,0.0,12.0,48,0.00,,SCT050,0.00,VWS V13.01,2013-04-26 21:46:00,
2013-04-26 17:47:00,68.3,48.4,29.98,South,169,4.0,4.0,49,0.00,,SCT050,0.00,VWS V13.01,2013-04-26 21:47:00,
2013-04-26 17:48:00,68.1,48.2,29.98,SW,230,4.0,6.0,49,0.00,,SCT050,0.00,VWS V13.01,2013-04-26 21:48:00,
2013-04-26 17:49:00,68.1,47.7,29.98,SE,140,6.0,14.0,48,0.00,,SCT050,0.00,VWS V13.01,2013-04-26 21:49:00,
2013-04-26 17:52:00,67.9,47.5,29.98,SE,145,6.0,16.0,48,0.00,,SCT050,0.00,VWS V13.01,2013-04-26 21:52:00,
2013-04-26 17:53:00,67.9,48.1,29.98,SSE,158,4.0,16.0,49,0.00,,SCT050,0.00,VWS V13.01,2013-04-26 21:53:00,
2013-04-26 17:54:00,67.9,48.1,29.98,SSE,158,2.0,14.0,49,0.00,,SCT050,0.00,VWS V13.01,2013-04-26 21:54:00,
2013-04-26 17:57:00,67.8,49.0,29.98,SSW,196,16.0,20.0,51,0.00,,SCT050,0.00,VWS V13.01,2013-04-26 21:57:00,
2013-04-26 17:58:00,67.6,48.8,29.98,SSE,148,10.0,16.0,51,0.00,,SCT050,0.00,VWS V13.01,2013-04-26 21:58:00,
2013-04-26 17:59:00,67.6,49.4,29.98,SSE,147,2.0,18.0,52,0.00,,SCT050,0.00,VWS V13.01,2013-04-26 21:59:00,
2013-04-26 18:00:00,67.3,49.1,29.99,South,181,20.0,24.0,52,0.00,,SCT055,0.00,VWS V14.01,2013-04-26 22:00:00,
2013-04-26 18:02:00,67.3,49.1,29.99,SSE,154,6.0,24.0,52,0.00,,SCT050,0.00,VWS V13.01,2013-04-26 22:02:00,
2013-04-26 18:03:00,67.1,49.4,29.99,South,189,14.0,24.0,53,0.00,,SCT050,0.00,VWS V13.01,2013-04-26 22:03:00,
2013-04-26 18:04:00,67.1,49.4,29.99,SSE,147,2.0,18.0,53,0.00,,SCT050,0.00,VWS V13.01,2013-04-26 22:04:00,
2013-04-26 18:07:00,66.8,49.6,29.99,South,185,10.0,16.0,54,0.00,,SCT050,0.00,VWS V13.01,2013-04-26 22:07:00,
2013-04-26 18:08:00,66.6,49.5,29.99,SSE,164,8.0,12.0,54,0.00,,SCT050,0.00,VWS V13.01,2013-04-26 22:08:00,
2013-04-26 18:09:00,66.6,49.5,29.99,South,186,10.0,12.0,54,0.00,,SCT050,0.00,VWS V13.01,2013-04-26 22:09:00,
2013-04-26 18:11:00,66.4,49.8,29.99,South,174,16.0,22.0,55,0.00,,SCT050,0.00,VWS V13.01,2013-04-26 22:11:00,
2013-04-26 18:12:00,66.1,49.5,29.99,SSW,193,14.0,20.0,55,0.00,,SCT050,0.00,VWS V13.01,2013-04-26 22:12:00,
2013-04-26 18:13:00,66.0,49.4,29.99,SSE,162,10.0,24.0,55,0.00,,SCT050,0.00,VWS V13.01,2013-04-26 22:13:00,
2013-04-26 18:14:00,65.8,49.2,29.99,South,176,12.0,24.0,55,0.00,,SCT050,0.00,VWS V13.01,2013-04-26 22:14:00,
2013-04-26 18:16:00,65.5,49.4,30.00,SSE,162,2.0,22.0,56,0.00,,SCT050,0.00,VWS V13.01,2013-04-26 22:16:00,
2013-04-26 18:17:00,65.3,49.2,30.00,SSE,168,8.0,24.0,56,0.00,,SCT050,0.00,VWS V13.01,2013-04-26 22:17:00,
2013-04-26 18:19:00,65.2,49.6,30.00,SSE,155,10.0,24.0,57,0.00,,SCT050,0.00,VWS V13.01,2013-04-26 22:19:00,
2013-04-26 18:20:00,65.0,49.4,30.00,SE,126,10.0,24.0,57,0.00,,SCT050,0.00,VWS V13.01,2013-04-26 22:20:00,
2013-04-26 18:22:00,64.7,49.6,30.00,South,178,10.0,20.0,58,0.00,,SCT050,0.00,VWS V13.01,2013-04-26 22:22:00,
2013-04-26 18:23:00,64.5,49.4,30.00,SSE,161,10.0,38.0,58,0.00,,SCT050,0.00,VWS V13.01,2013-04-26 22:23:00,
2013-04-26 18:24:00,64.3,49.2,30.00,South,178,14.0,38.0,58,0.00,,SCT050,0.00,VWS V13.01,2013-04-26 22:24:00,
2013-04-26 18:25:00,64.2,49.1,30.00,SE,143,16.0,26.0,58,0.00,,SCT050,0.00,VWS V13.01,2013-04-26 22:25:00,
2013-04-26 18:27:00,64.0,49.4,30.00,SE,126,12.0,18.0,59,0.00,,SCT050,0.00,VWS V13.01,2013-04-26 22:27:00,
2013-04-26 18:28:00,63.9,49.3,30.00,South,186,6.0,16.0,59,0.00,,SCT050,0.00,VWS V13.01,2013-04-26 22:28:00,
2013-04-26 18:29:00,63.9,49.3,30.00,SSE,164,10.0,34.0,59,0.00,,SCT050,0.00,VWS V13.01,2013-04-26 22:29:00,
2013-04-26 18:30:00,63.7,49.1,30.00,South,176,4.0,14.0,59,0.00,,SCT050,0.00,VWS V13.01,2013-04-26 22:30:00,
2013-04-26 18:32:00,63.7,49.6,30.00,SSE,165,2.0,10.0,60,0.00,,SCT050,0.00,VWS V13.01,2013-04-26 22:32:00,
2013-04-26 18:33:00,63.7,49.6,30.00,South,171,6.0,12.0,60,0.00,,SCT050,0.00,VWS V13.01,2013-04-26 22:33:00,
2013-04-26 18:34:00,63.7,49.6,30.00,SSE,164,4.0,12.0,60,0.00,,SCT050,0.00,VWS V13.01,2013-04-26 22:34:00,
2013-04-26 18:35:00,63.7,49.6,30.00,SE,130,12.0,14.0,60,0.00,,SCT050,0.00,VWS V13.01,2013-04-26 22:35:00,
2013-04-26 18:36:00,63.7,49.6,30.00,SSE,158,0.0,14.0,60,0.00,,SCT050,0.00,VWS V13.01,2013-04-26 22:36:00,
2013-04-26 18:38:00,63.7,49.6,30.00,South,181,0.0,20.0,60,0.00,,OVC050,0.00,VWS V13.01,2013-04-26 22:38:00,
2013-04-26 18:39:00,63.7,49.6,30.00,SSE,161,6.0,6.0,60,0.00,,OVC050,0.00,VWS V13.01,2013-04-26 22:39:00,
2013-04-26 18:40:00,63.7,49.6,30.00,SSE,150,8.0,12.0,60,0.00,,OVC050,0.00,VWS V13.01,2013-04-26 22:40:00,
2013-04-26 18:41:00,63.7,49.6,30.00,SSE,168,4.0,14.0,60,0.00,,OVC050,0.00,VWS V13.01,2013-04-26 22:41:00,
2013-04-26 18:43:00,63.7,49.6,30.00,South,182,4.0,14.0,60,0.00,,SCT050,0.00,VWS V13.01,2013-04-26 22:43:00,
2013-04-26 18:44:00,63.7,49.6,30.00,SSE,154,6.0,20.0,60,0.00,,SCT050,0.00,VWS V13.01,2013-04-26 22:44:00,
2013-04-26 18:45:00,63.7,49.6,30.00,SSE,161,0.0,20.0,60,0.00,,SCT050,0.00,VWS V13.01,2013-04-26 22:45:00,
2013-04-26 18:46:00,63.9,49.8,30.01,SSE,161,0.0,4.0,60,0.00,,SCT050,0.00,VWS V13.01,2013-04-26 22:46:00,
2013-04-26 18:48:00,63.9,49.8,30.01,SSE,161,0.0,4.0,60,0.00,,SCT050,0.00,VWS V13.01,2013-04-26 22:48:00,
2013-04-26 18:49:00,63.9,49.8,30.01,SSE,161,0.0,0.0,60,0.00,,SCT050,0.00,VWS V13.01,2013-04-26 22:49:00,
2013-04-26 18:50:00,64.0,49.8,30.01,SSE,152,6.0,6.0,60,0.00,,SCT050,0.00,VWS V13.01,2013-04-26 22:50:00,
2013-04-26 18:52:00,64.2,50.0,30.01,SSE,162,2.0,14.0,60,0.00,,SCT050,0.00,VWS V13.01,2013-04-26 22:52:00,
2013-04-26 18:53:00,64.2,49.6,30.01,South,188,0.0,14.0,59,0.00,,SCT050,0.00,VWS V13.01,2013-04-26 22:53:00,
2013-04-26 18:54:00,64.2,49.6,30.01,South,188,0.0,14.0,59,0.00,,SCT050,0.00,VWS V13.01,2013-04-26 22:54:00,
2013-04-26 18:55:00,64.3,49.7,30.01,South,188,0.0,4.0,59,0.00,,SCT050,0.00,VWS V13.01,2013-04-26 22:55:00,
2013-04-26 18:57:00,64.5,49.9,30.01,SSW,203,10.0,10.0,59,0.00,,OVC050,0.00,VWS V13.01,2013-04-26 22:57:00,
2013-04-26 18:58:00,64.5,49.4,30.01,South,171,10.0,12.0,58,0.00,,OVC050,0.00,VWS V13.01,2013-04-26 22:58:00,
2013-04-26 18:59:00,64.7,49.6,30.01,South,184,4.0,12.0,58,0.00,,OVC050,0.00,VWS V13.01,2013-04-26 22:59:00,
2013-04-26 19:00:00,64.7,49.6,30.01,South,171,14.0,14.0,58,0.00,,OVC050,0.00,VWS V13.01,2013-04-26 23:00:00,
2013-04-26 19:02:00,64.7,49.6,30.00,SSE,165,0.0,10.0,58,0.00,,OVC050,0.00,VWS V13.01,2013-04-26 23:02:00,
2013-04-26 19:04:00,64.8,49.7,30.00,SSE,155,6.0,14.0,58,0.00,,OVC050,0.00,VWS V13.01,2013-04-26 23:04:00,
2013-04-26 19:05:00,64.8,49.7,30.00,SE,144,18.0,18.0,58,0.00,,OVC050,0.00,VWS V13.01,2013-04-26 23:05:00,
2013-04-26 19:07:00,64.8,49.7,30.00,SSE,154,2.0,18.0,58,0.00,,OVC050,0.00,VWS V13.01,2013-04-26 23:07:00,
2013-04-26 19:09:00,64.8,49.7,30.00,South,184,4.0,10.0,58,0.00,,OVC050,0.00,VWS V13.01,2013-04-26 23:09:00,
2013-04-26 19:10:00,64.8,49.7,30.00,SSE,167,10.0,24.0,58,0.00,,OVC050,0.00,VWS V13.01,2013-04-26 23:10:00,
2013-04-26 19:11:00,64.8,49.7,30.00,SE,138,10.0,24.0,58,0.00,,OVC050,0.00,VWS V13.01,2013-04-26 23:11:00,
2013-04-26 19:13:00,64.8,49.7,30.00,SSE,168,12.0,16.0,58,0.00,,OVC050,0.00,VWS V13.01,2013-04-26 23:13:00,
2013-04-26 19:15:00,64.8,49.7,30.00,SE,137,4.0,12.0,58,0.00,,OVC050,0.00,VWS V13.01,2013-04-26 23:15:00,
2013-04-26 19:16:00,64.8,49.7,30.00,SSE,155,6.0,14.0,58,0.00,,OVC050,0.00,VWS V13.01,2013-04-26 23:16:00,
2013-04-26 19:18:00,64.8,49.7,30.00,SE,133,2.0,14.0,58,0.00,,OVC050,0.00,VWS V13.01,2013-04-26 23:18:00,
2013-04-26 19:20:00,64.8,49.7,30.00,SSE,167,4.0,10.0,58,0.00,,OVC050,0.00,VWS V13.01,2013-04-26 23:20:00,
2013-04-26 19:21:00,64.8,49.7,30.00,SSE,157,4.0,10.0,58,0.00,,OVC050,0.00,VWS V13.01,2013-04-26 23:21:00,
2013-04-26 19:23:00,64.8,49.7,30.00,SE,144,2.0,10.0,58,0.00,,OVC050,0.00,VWS V13.01,2013-04-26 23:23:00,
2013-04-26 19:25:00,64.7,49.6,30.00,South,175,6.0,20.0,58,0.00,,OVC050,0.00,VWS V13.01,2013-04-26 23:25:00,
2013-04-26 19:26:00,64.7,49.6,30.00,South,189,6.0,20.0,58,0.00,,OVC050,0.00,VWS V13.01,2013-04-26 23:26:00,
2013-04-26 19:28:00,64.7,49.6,30.00,SSE,148,6.0,10.0,58,0.00,,OVC050,0.00,VWS V13.01,2013-04-26 23:28:00,
2013-04-26 19:30:00,64.5,49.4,30.01,SSW,193,4.0,4.0,58,0.00,,OVC050,0.00,VWS V13.01,2013-04-26 23:30:00,
2013-04-26 19:31:00,64.5,49.4,30.01,SE,145,10.0,10.0,58,0.00,,OVC050,0.00,VWS V13.01,2013-04-26 23:31:00,
2013-04-26 19:33:00,64.5,49.4,30.01,South,169,4.0,12.0,58,0.00,,OVC050,0.00,VWS V13.01,2013-04-26 23:33:00,
2013-04-26 19:35:00,64.3,49.2,30.01,SSE,160,4.0,14.0,58,0.00,,OVC050,0.00,VWS V13.01,2013-04-26 23:35:00,
2013-04-26 19:36:00,64.3,49.2,30.01,SSE,160,0.0,14.0,58,0.00,,OVC050,0.00,VWS V13.01,2013-04-26 23:36:00,
2013-04-26 19:37:00,64.3,49.7,30.01,SSE,160,2.0,12.0,59,0.00,,OVC050,0.00,VWS V13.01,2013-04-26 23:37:00,
2013-04-26 19:38:00,64.3,49.7,30.01,SSE,162,0.0,8.0,59,0.00,,OVC050,0.00,VWS V13.01,2013-04-26 23:38:00,
2013-04-26 19:41:00,64.2,49.6,30.01,SE,143,2.0,12.0,59,0.00,,OVC050,0.00,VWS V13.01,2013-04-26 23:41:00,
2013-04-26 19:42:00,64.2,49.6,30.01,SE,143,4.0,12.0,59,0.00,,FEW070,0.00,VWS V13.01,2013-04-26 23:42:00,
2013-04-26 19:43:00,64.0,49.4,30.01,South,178,2.0,22.0,59,0.00,,FEW070,0.00,VWS V13.01,2013-04-26 23:43:00,
2013-04-26 20:00:00,63.4,49.7,30.01,South,181,10.0,12.0,61,0.00,,SCT055,0.00,VWS V14.01,2013-04-27 00:00:00,
2013-04-26 20:05:00,63.2,49.5,30.01,SSE,164,4.0,14.0,61,0.00,,,0.00,VWS V13.01,2013-04-27 00:05:00,
2013-04-26 20:06:00,63.2,49.5,30.01,South,178,12.0,14.0,61,0.00,,,0.00,VWS V13.01,2013-04-27 00:06:00,
2013-04-26 20:07:00,63.2,49.1,30.01,South,181,0.0,12.0,60,0.00,,FEW070,0.00,VWS V13.01,2013-04-27 00:07:00,
2013-04-26 20:10:00,63.2,49.5,30.01,SSE,168,2.0,10.0,61,0.00,,FEW070,0.00,VWS V13.01,2013-04-27 00:10:00,
2013-04-26 20:11:00,63.2,49.5,30.01,SSE,168,4.0,10.0,61,0.00,,FEW070,0.00,VWS V13.01,2013-04-27 00:11:00,
2013-04-26 20:12:00,63.2,49.5,30.01,SSW,193,16.0,20.0,61,0.00,,CLR,0.00,VWS V13.01,2013-04-27 00:12:00,
2013-04-26 20:15:00,63.2,49.1,30.01,South,176,16.0,20.0,60,0.00,,CLR,0.00,VWS V13.01,2013-04-27 00:15:00,
2013-04-26 20:16:00,63.1,49.0,30.01,SSE,148,10.0,20.0,60,0.00,,CLR,0.00,VWS V13.01,2013-04-27 00:16:00,
2013-04-26 20:17:00,63.1,49.0,30.01,ESE,119,6.0,20.0,60,0.00,,CLR,0.00,VWS V13.01,2013-04-27 00:17:00,
2013-04-26 20:20:00,63.1,49.5,30.01,South,176,0.0,2.0,61,0.00,,CLR,0.00,VWS V13.01,2013-04-27 00:20:00,
2013-04-26 20:21:00,63.1,49.5,30.01,South,176,0.0,2.0,61,0.00,,CLR,0.00,VWS V13.01,2013-04-27 00:21:00,
2013-04-26 20:22:00,63.1,49.5,30.01,SE,127,4.0,8.0,61,0.00,,CLR,0.00,VWS V13.01,2013-04-27 00:22:00,
2013-04-26 20:25:00,63.1,49.0,30.01,South,191,6.0,16.0,60,0.00,,CLR,0.00,VWS V13.01,2013-04-27 00:25:00,
2013-04-26 20:26:00,63.1,49.5,30.01,SSE,154,2.0,16.0,61,0.00,,CLR,0.00,VWS V13.01,2013-04-27 00:26:00,
2013-04-26 20:27:00,63.1,49.0,30.01,SSE,168,4.0,16.0,60,0.00,,CLR,0.00,VWS V13.01,2013-04-27 00:27:00,
2013-04-26 20:30:00,62.9,48.8,30.02,SSE,164,6.0,14.0,60,0.00,,SCT055,0.00,VWS V14.01,2013-04-27 00:30:00,
2013-04-26 20:31:00,62.9,49.3,30.02,SE,140,14.0,14.0,61,0.00,,CLR,0.00,VWS V13.01,2013-04-27 00:31:00,
2013-04-26 20:32:00,62.9,48.8,30.02,South,176,8.0,14.0,60,0.00,,CLR,0.00,VWS V13.01,2013-04-27 00:32:00,
2013-04-26 20:33:00,62.9,48.8,30.02,SSE,161,0.0,14.0,60,0.00,,CLR,0.00,VWS V13.01,2013-04-27 00:33:00,
2013-04-26 20:36:00,62.9,49.3,30.02,SE,138,4.0,16.0,61,0.00,,CLR,0.00,VWS V13.01,2013-04-27 00:36:00,
2013-04-26 20:37:00,62.9,49.3,30.02,South,179,12.0,14.0,61,0.00,,CLR,0.00,VWS V13.01,2013-04-27 00:37:00,
2013-04-26 20:38:00,62.7,49.1,30.02,South,191,20.0,20.0,61,0.00,,CLR,0.00,VWS V13.01,2013-04-27 00:38:00,
2013-04-26 20:42:00,62.7,49.1,30.02,SE,145,0.0,14.0,61,0.00,,CLR,0.00,VWS V13.01,2013-04-27 00:42:00,
2013-04-26 20:43:00,62.6,49.0,30.02,SE,144,0.0,14.0,61,0.00,,CLR,0.00,VWS V13.01,2013-04-27 00:43:00,
2013-04-26 20:44:00,62.6,49.0,30.02,SSE,152,8.0,10.0,61,0.00,,CLR,0.00,VWS V13.01,2013-04-27 00:44:00,
2013-04-26 20:47:00,62.4,48.8,30.02,SE,134,4.0,14.0,61,0.00,,CLR,0.00,VWS V13.01,2013-04-27 00:47:00,
2013-04-26 20:48:00,62.4,48.8,30.02,SE,136,2.0,14.0,61,0.00,,CLR,0.00,VWS V13.01,2013-04-27 00:48:00,
2013-04-26 20:49:00,62.4,48.8,30.02,SSE,150,0.0,10.0,61,0.00,,CLR,0.00,VWS V13.01,2013-04-27 00:49:00,
2013-04-26 20:52:00,62.1,48.5,30.02,SE,134,8.0,22.0,61,0.00,,CLR,0.00,VWS V13.01,2013-04-27 00:52:00,
2013-04-26 20:54:00,62.0,48.4,30.02,SSE,147,4.0,16.0,61,0.00,,CLR,0.00,VWS V13.01,2013-04-27 00:54:00,
2013-04-26 20:57:00,61.8,48.7,30.02,SSE,155,4.0,6.0,62,0.00,,CLR,0.00,VWS V13.01,2013-04-27 00:57:00,
2013-04-26 20:58:00,61.6,48.5,30.02,South,178,14.0,22.0,62,0.00,,CLR,0.00,VWS V13.01,2013-04-27 00:58:00,
2013-04-26 20:59:00,61.6,48.5,30.02,South,171,6.0,22.0,62,0.00,,CLR,0.00,VWS V13.01,2013-04-27 00:59:00,
2013-04-26 21:00:00,61.5,48.4,30.03,SSW,193,14.0,14.0,62,0.00,,SCT055,0.00,VWS V14.01,2013-04-27 01:00:00,
2013-04-26 21:03:00,61.3,48.2,30.03,South,178,12.0,22.0,62,0.00,,CLR,0.00,VWS V13.01,2013-04-27 01:03:00,
2013-04-26 21:04:00,61.3,48.2,30.03,SSE,167,6.0,22.0,62,0.00,,CLR,0.00,VWS V13.01,2013-04-27 01:04:00,
2013-04-26 21:05:00,61.2,48.1,30.03,South,171,4.0,12.0,62,0.00,,CLR,0.00,VWS V13.01,2013-04-27 01:05:00,
2013-04-26 21:08:00,61.0,48.3,30.03,South,169,8.0,10.0,63,0.00,,CLR,0.00,VWS V13.01,2013-04-27 01:08:00,
2013-04-26 21:09:00,61.0,48.3,30.03,South,179,14.0,16.0,63,0.00,,CLR,0.00,VWS V13.01,2013-04-27 01:09:00,
2013-04-26 21:10:00,60.9,48.2,30.03,South,179,4.0,16.0,63,0.00,,CLR,0.00,VWS V13.01,2013-04-27 01:10:00,
2013-04-26 21:13:00,60.7,48.0,30.03,SSE,164,14.0,14.0,63,0.00,,CLR,0.00,VWS V13.01,2013-04-27 01:13:00,
2013-04-26 21:14:00,60.5,47.9,30.03,South,175,8.0,16.0,63,0.00,,CLR,0.00,VWS V13.01,2013-04-27 01:14:00,
2013-04-26 21:15:00,60.5,47.9,30.03,SW,232,12.0,20.0,63,0.00,,CLR,0.00,VWS V13.01,2013-04-27 01:15:00,
2013-04-26 21:18:00,60.2,48.0,30.03,SSE,167,0.0,16.0,64,0.00,,CLR,0.00,VWS V13.01,2013-04-27 01:18:00,
2013-04-26 21:19:00,60.2,48.0,30.03,SSE,167,0.0,10.0,64,0.00,,CLR,0.00,VWS V13.01,2013-04-27 01:19:00,
2013-04-26 21:20:00,60.1,47.9,30.03,South,175,4.0,8.0,64,0.00,,CLR,0.00,VWS V13.01,2013-04-27 01:20:00,
2013-04-26 21:24:00,59.9,47.7,30.03,SSE,161,4.0,16.0,64,0.00,,CLR,0.00,VWS V13.01,2013-04-27 01:24:00,
2013-04-26 21:25:00,59.8,47.6,30.03,SE,134,0.0,16.0,64,0.00,,CLR,0.00,VWS V13.01,2013-04-27 01:25:00,
2013-04-26 21:26:00,59.8,48.0,30.03,South,174,4.0,10.0,65,0.00,,CLR,0.00,VWS V13.01,2013-04-27 01:26:00,
2013-04-26 21:29:00,59.5,47.7,30.03,SSE,158,4.0,12.0,65,0.00,,CLR,0.00,VWS V13.01,2013-04-27 01:29:00,
2013-04-26 21:30:00,59.5,47.7,30.03,South,178,6.0,6.0,65,0.00,,CLR,0.00,VWS V13.01,2013-04-27 01:30:00,
2013-04-26 21:31:00,59.3,48.0,30.04,SSE,167,2.0,14.0,66,0.00,,CLR,0.00,VWS V13.01,2013-04-27 01:31:00,
2013-04-26 21:34:00,59.2,47.9,30.04,SE,145,6.0,6.0,66,0.00,,CLR,0.00,VWS V13.01,2013-04-27 01:34:00,
2013-04-26 21:35:00,59.0,47.7,30.04,South,176,12.0,14.0,66,0.00,,CLR,0.00,VWS V13.01,2013-04-27 01:35:00,
2013-04-26 21:36:00,58.9,47.6,30.04,SSE,150,6.0,14.0,66,0.00,,CLR,0.00,VWS V13.01,2013-04-27 01:36:00,
2013-04-26 21:39:00,58.6,47.7,30.04,South,171,6.0,12.0,67,0.00,,CLR,0.00,VWS V13.01,2013-04-27 01:39:00,
2013-04-26 21:40:00,58.6,47.7,30.04,South,184,4.0,12.0,67,0.00,,CLR,0.00,VWS V13.01,2013-04-27 01:40:00,
2013-04-26 21:41:00,58.4,47.5,30.04,SSE,162,0.0,12.0,67,0.00,,CLR,0.00,VWS V13.01,2013-04-27 01:41:00,
2013-04-26 21:42:00,58.4,47.5,30.04,SSE,158,10.0,10.0,67,0.00,,CLR,0.00,VWS V13.01,2013-04-27 01:42:00,
2013-04-26 21:44:00,58.1,47.6,30.04,SSE,158,4.0,20.0,68,0.00,,CLR,0.00,VWS V13.01,2013-04-27 01:44:00,
2013-04-26 21:45:00,58.0,47.5,30.04,South,172,10.0,10.0,68,0.00,,CLR,0.00,VWS V13.01,2013-04-27 01:45:00,
2013-04-26 21:46:00,58.0,47.5,30.05,SE,145,4.0,18.0,68,0.00,,CLR,0.00,VWS V13.01,2013-04-27 01:46:00,
2013-04-26 21:47:00,58.0,47.5,30.05,SSE,152,8.0,18.0,68,0.00,,CLR,0.00,VWS V13.01,2013-04-27 01:47:00,
2013-04-26 21:50:00,57.5,47.4,30.05,South,171,2.0,16.0,69,0.00,,CLR,0.00,VWS V13.01,2013-04-27 01:50:00,
2013-04-26 21:51:00,57.3,47.2,30.05,SSE,168,2.0,10.0,69,0.00,,CLR,0.00,VWS V13.01,2013-04-27 01:51:00,
2013-04-26 21:52:00,57.3,47.2,30.05,South,169,6.0,10.0,69,0.00,,CLR,0.00,VWS V13.01,2013-04-27 01:52:00,
2013-04-26 21:55:00,57.0,47.3,30.05,SSE,168,0.0,0.0,70,0.00,,CLR,0.00,VWS V13.01,2013-04-27 01:55:00,
2013-04-26 21:57:00,56.9,47.2,30.05,SSE,167,0.0,16.0,70,0.00,,CLR,0.00,VWS V13.01,2013-04-27 01:57:00,
2013-04-26 21:58:00,56.7,47.4,30.05,SSE,168,0.0,0.0,71,0.00,,CLR,0.00,VWS V13.01,2013-04-27 01:58:00,
2013-04-26 22:00:00,56.5,47.2,30.05,SE,143,0.0,14.0,71,0.00,,CLR,0.00,VWS V13.01,2013-04-27 02:00:00,
2013-04-26 22:01:00,56.5,47.2,30.06,South,181,6.0,10.0,71,0.00,,CLR,0.00,VWS V13.01,2013-04-27 02:01:00,
2013-04-26 22:02:00,56.3,47.0,30.06,South,178,12.0,12.0,71,0.00,,CLR,0.00,VWS V13.01,2013-04-27 02:02:00,
2013-04-26 22:03:00,56.3,47.0,30.06,SSE,162,0.0,12.0,71,0.00,,CLR,0.00,VWS V13.01,2013-04-27 02:03:00,
2013-04-26 22:05:00,56.0,47.1,30.06,South,181,6.0,16.0,72,0.00,,CLR,0.00,VWS V13.01,2013-04-27 02:05:00,
2013-04-26 22:06:00,56.0,47.1,30.06,SSE,168,6.0,22.0,72,0.00,,CLR,0.00,VWS V13.01,2013-04-27 02:06:00,
2013-04-26 22:08:00,55.7,46.8,30.06,SSE,168,0.0,12.0,72,0.00,,CLR,0.00,VWS V13.01,2013-04-27 02:08:00,
2013-04-26 22:10:00,55.6,47.1,30.06,SSE,168,0.0,4.0,73,0.00,,CLR,0.00,VWS V13.01,2013-04-27 02:10:00,
2013-04-26 22:11:00,55.4,46.9,30.06,SSE,168,0.0,4.0,73,0.00,,CLR,0.00,VWS V13.01,2013-04-27 02:11:00,
2013-04-26 22:13:00,55.3,46.8,30.06,SSE,168,4.0,4.0,73,0.00,,CLR,0.00,VWS V13.01,2013-04-27 02:13:00,
2013-04-26 22:16:00,55.1,47.0,30.06,SSE,162,0.0,6.0,74,0.00,,CLR,0.00,VWS V13.01,2013-04-27 02:16:00,
2013-04-26 22:18:00,55.0,46.9,30.06,South,188,16.0,16.0,74,0.00,,CLR,0.00,VWS V13.01,2013-04-27 02:18:00,
2013-04-26 22:20:00,54.8,47.0,30.06,South,178,0.0,14.0,75,0.00,,CLR,0.00,VWS V13.01,2013-04-27 02:20:00,
2013-04-26 22:22:00,54.7,46.9,30.06,SE,138,10.0,14.0,75,0.00,,CLR,0.00,VWS V13.01,2013-04-27 02:22:00,
2013-04-26 22:23:00,54.7,46.9,30.06,SSE,161,0.0,14.0,75,0.00,,CLR,0.00,VWS V13.01,2013-04-27 02:23:00,
2013-04-26 22:24:00,54.5,46.8,30.06,SE,144,6.0,14.0,75,0.00,,CLR,0.00,VWS V13.01,2013-04-27 02:24:00,
2013-04-26 22:25:00,54.5,46.8,30.06,South,182,10.0,14.0,75,0.00,,CLR,0.00,VWS V13.01,2013-04-27 02:25:00,
2013-04-26 22:26:00,54.4,46.7,30.06,South,169,0.0,14.0,75,0.00,,CLR,0.00,VWS V13.01,2013-04-27 02:26:00,
2013-04-26 22:27:00,54.4,46.7,30.06,SSE,168,2.0,10.0,75,0.00,,CLR,0.00,VWS V13.01,2013-04-27 02:27:00,
2013-04-26 22:28:00,54.2,46.8,30.06,SSE,168,0.0,6.0,76,0.00,,CLR,0.00,VWS V13.01,2013-04-27 02:28:00,
2013-04-26 22:29:00,54.2,46.8,30.06,East,90,2.0,6.0,76,0.00,,CLR,0.00,VWS V13.01,2013-04-27 02:29:00,
2013-04-26 22:30:00,54.1,46.7,30.06,South,182,8.0,10.0,76,0.00,,CLR,0.00,VWS V13.01,2013-04-27 02:30:00,
2013-04-26 22:31:00,54.1,46.7,30.08,SE,128,0.0,24.0,76,0.00,,CLR,0.00,VWS V13.01,2013-04-27 02:31:00,
2013-04-26 22:33:00,53.9,46.5,30.08,SSE,157,6.0,16.0,76,0.00,,CLR,0.00,VWS V13.01,2013-04-27 02:33:00,
2013-04-26 22:34:00,53.9,46.9,30.08,South,174,6.0,18.0,77,0.00,,CLR,0.00,VWS V13.01,2013-04-27 02:34:00,
2013-04-26 22:35:00,53.8,46.8,30.08,SSE,161,10.0,18.0,77,0.00,,CLR,0.00,VWS V13.01,2013-04-27 02:35:00,
2013-04-26 22:36:00,53.6,46.6,30.08,SE,145,0.0,14.0,77,0.00,,CLR,0.00,VWS V13.01,2013-04-27 02:36:00,
2013-04-26 22:38:00,53.6,46.6,30.08,SE,145,0.0,4.0,77,0.00,,CLR,0.00,VWS V13.01,2013-04-27 02:38:00,
2013-04-26 22:39:00,53.6,46.6,30.08,SSE,154,2.0,6.0,77,0.00,,CLR,0.00,VWS V13.01,2013-04-27 02:39:00,
2013-04-26 22:40:00,53.5,46.5,30.08,ESE,120,0.0,16.0,77,0.00,,CLR,0.00,VWS V13.01,2013-04-27 02:40:00,
2013-04-26 22:42:00,53.3,46.6,30.08,South,184,0.0,16.0,78,0.00,,CLR,0.00,VWS V13.01,2013-04-27 02:42:00,
2013-04-26 22:43:00,53.3,46.6,30.08,South,185,2.0,14.0,78,0.00,,CLR,0.00,VWS V13.01,2013-04-27 02:43:00,
2013-04-26 22:44:00,53.3,46.6,30.08,South,185,12.0,14.0,78,0.00,,CLR,0.00,VWS V13.01,2013-04-27 02:44:00,
2013-04-26 22:46:00,53.2,46.5,30.08,South,175,0.0,12.0,78,0.00,,CLR,0.00,VWS V13.01,2013-04-27 02:46:00,
2013-04-26 22:47:00,53.2,46.5,30.08,South,184,12.0,14.0,78,0.00,,CLR,0.00,VWS V13.01,2013-04-27 02:47:00,
2013-04-26 22:48:00,53.1,46.4,30.08,SSE,160,6.0,16.0,78,0.00,,CLR,0.00,VWS V13.01,2013-04-27 02:48:00,
2013-04-26 22:49:00,53.1,46.4,30.08,South,188,8.0,16.0,78,0.00,,CLR,0.00,VWS V13.01,2013-04-27 02:49:00,
2013-04-26 22:50:00,53.1,46.4,30.08,SSW,206,14.0,16.0,78,0.00,,CLR,0.00,VWS V13.01,2013-04-27 02:50:00,
2013-04-26 22:51:00,52.9,46.6,30.08,SSE,154,4.0,18.0,79,0.00,,CLR,0.00,VWS V13.01,2013-04-27 02:51:00,
2013-04-26 22:53:00,52.8,46.5,30.08,SSE,168,2.0,16.0,79,0.00,,CLR,0.00,VWS V13.01,2013-04-27 02:53:00,
2013-04-26 22:54:00,52.8,46.5,30.08,SSE,167,0.0,16.0,79,0.00,,CLR,0.00,VWS V13.01,2013-04-27 02:54:00,
2013-04-26 22:55:00,52.8,46.5,30.08,SSE,160,10.0,10.0,79,0.00,,CLR,0.00,VWS V13.01,2013-04-27 02:55:00,
2013-04-26 22:56:00,52.8,46.5,30.08,SSE,168,6.0,16.0,79,0.00,,CLR,0.00,VWS V13.01,2013-04-27 02:56:00,
2013-04-26 22:58:00,52.6,46.3,30.08,SSE,168,0.0,2.0,79,0.00,,CLR,0.00,VWS V13.01,2013-04-27 02:58:00,
2013-04-26 22:59:00,52.6,46.3,30.08,SSE,152,8.0,12.0,79,0.00,,CLR,0.00,VWS V13.01,2013-04-27 02:59:00,
2013-04-26 23:00:00,52.6,46.3,30.08,SSE,158,0.0,12.0,79,0.00,,CLR,0.00,VWS V13.01,2013-04-27 03:00:00,
2013-04-26 23:01:00,52.5,46.2,30.08,SSE,158,0.0,4.0,79,0.00,,CLR,0.00,VWS V13.01,2013-04-27 03:01:00,
2013-04-26 23:04:00,52.3,46.3,30.08,SSE,151,6.0,14.0,80,0.00,,CLR,0.00,VWS V13.01,2013-04-27 03:04:00,
2013-04-26 23:05:00,52.3,46.3,30.08,SSE,167,2.0,14.0,80,0.00,,CLR,0.00,VWS V13.01,2013-04-27 03:05:00,
2013-04-26 23:06:00,52.3,46.3,30.08,SSW,192,8.0,14.0,80,0.00,,CLR,0.00,VWS V13.01,2013-04-27 03:06:00,
2013-04-26 23:09:00,52.2,46.2,30.08,South,186,0.0,14.0,80,0.00,,CLR,0.00,VWS V13.01,2013-04-27 03:09:00,
2013-04-26 23:10:00,52.2,46.2,30.08,South,178,0.0,14.0,80,0.00,,CLR,0.00,VWS V13.01,2013-04-27 03:10:00,
2013-04-26 23:11:00,52.2,46.2,30.08,South,178,2.0,14.0,80,0.00,,CLR,0.00,VWS V13.01,2013-04-27 03:11:00,
2013-04-26 23:14:00,52.0,46.4,30.08,South,172,2.0,10.0,81,0.00,,CLR,0.00,VWS V13.01,2013-04-27 03:14:00,
2013-04-26 23:15:00,52.0,46.4,30.08,South,172,0.0,10.0,81,0.00,,CLR,0.00,VWS V13.01,2013-04-27 03:15:00,
2013-04-26 23:16:00,52.0,46.4,30.08,South,172,0.0,10.0,81,0.00,,CLR,0.00,VWS V13.01,2013-04-27 03:16:00,
2013-04-26 23:19:00,51.9,46.3,30.08,South,184,0.0,14.0,81,0.00,,CLR,0.00,VWS V13.01,2013-04-27 03:19:00,
2013-04-26 23:20:00,51.9,46.3,30.08,South,184,0.0,14.0,81,0.00,,CLR,0.00,VWS V13.01,2013-04-27 03:20:00,
2013-04-26 23:21:00,51.9,46.3,30.08,South,184,0.0,2.0,81,0.00,,CLR,0.00,VWS V13.01,2013-04-27 03:21:00,
2013-04-26 23:22:00,51.7,46.1,30.08,South,184,0.0,0.0,81,0.00,,CLR,0.00,VWS V13.01,2013-04-27 03:22:00,
2013-04-26 23:24:00,51.7,46.1,30.08,South,184,0.0,6.0,81,0.00,,CLR,0.00,VWS V13.01,2013-04-27 03:24:00,
2013-04-26 23:25:00,51.7,46.1,30.08,South,184,0.0,6.0,81,0.00,,CLR,0.00,VWS V13.01,2013-04-27 03:25:00,
2013-04-26 23:26:00,51.7,46.1,30.08,South,184,0.0,2.0,81,0.00,,CLR,0.00,VWS V13.01,2013-04-27 03:26:00,
2013-04-26 23:28:00,51.6,46.0,30.08,South,189,6.0,6.0,81,0.00,,CLR,0.00,VWS V13.01,2013-04-27 03:28:00,
2013-04-26 23:30:00,51.6,46.0,30.08,South,189,0.0,6.0,81,0.00,,CLR,0.00,VWS V13.01,2013-04-27 03:30:00,
2013-04-26 23:31:00,51.4,45.8,30.09,SSE,161,0.0,4.0,81,0.00,,CLR,0.00,VWS V13.01,2013-04-27 03:31:00,
2013-04-26 23:32:00,51.4,45.8,30.09,SSE,161,0.0,4.0,81,0.00,,CLR,0.00,VWS V13.01,2013-04-27 03:32:00,
2013-04-26 23:33:00,51.6,46.3,30.09,South,179,0.0,12.0,82,0.00,,CLR,0.00,VWS V13.01,2013-04-27 03:33:00,
2013-04-26 23:35:00,51.4,46.1,30.09,South,179,0.0,2.0,82,0.00,,CLR,0.00,VWS V13.01,2013-04-27 03:35:00,
2013-04-26 23:37:00,51.4,46.1,30.09,South,179,0.0,6.0,82,0.00,,CLR,0.00,VWS V13.01,2013-04-27 03:37:00,
2013-04-26 23:38:00,51.3,46.0,30.09,South,179,0.0,2.0,82,0.00,,CLR,0.00,VWS V13.01,2013-04-27 03:38:00,
2013-04-26 23:40:00,51.3,46.0,30.09,South,179,4.0,4.0,82,0.00,,CLR,0.00,VWS V13.01,2013-04-27 03:40:00,
2013-04-26 23:42:00,51.1,45.8,30.09,South,179,0.0,4.0,82,0.00,,CLR,0.00,VWS V13.01,2013-04-27 03:42:00,
2013-04-26 23:44:00,51.1,45.8,30.09,South,179,0.0,4.0,82,0.00,,CLR,0.00,VWS V13.01,2013-04-27 03:44:00,
2013-04-26 23:45:00,51.1,45.8,30.09,South,179,0.0,0.0,82,0.00,,CLR,0.00,VWS V13.01,2013-04-27 03:45:00,
2013-04-26 23:47:00,51.1,45.8,30.10,South,179,0.0,0.0,82,0.00,,CLR,0.00,VWS V13.01,2013-04-27 03:47:00,
2013-04-26 23:48:00,51.0,45.7,30.10,South,179,0.0,0.0,82,0.00,,CLR,0.00,VWS V13.01,2013-04-27 03:48:00,
2013-04-26 23:49:00,51.0,46.0,30.10,South,179,0.0,2.0,83,0.00,,CLR,0.00,VWS V13.01,2013-04-27 03:49:00,
2013-04-26 23:50:00,51.0,46.0,30.10,South,179,0.0,0.0,83,0.00,,CLR,0.00,VWS V13.01,2013-04-27 03:50:00,
2013-04-26 23:52:00,51.0,46.0,30.10,South,179,0.0,6.0,83,0.00,,CLR,0.00,VWS V13.01,2013-04-27 03:52:00,
2013-04-26 23:53:00,51.0,46.0,30.10,South,179,0.0,6.0,83,0.00,,CLR,0.00,VWS V13.01,2013-04-27 03:53:00,
2013-04-26 23:54:00,51.0,46.0,30.10,South,179,0.0,0.0,83,0.00,,CLR,0.00,VWS V13.01,2013-04-27 03:54:00,
2013-04-26 23:56:00,50.8,45.8,30.10,South,179,0.0,0.0,83,0.00,,CLR,0.00,VWS V13.01,2013-04-27 03:56:00,
2013-04-26 23:57:00,50.8,45.8,30.10,South,179,0.0,0.0,83,0.00,,CLR,0.00,VWS V13.01,2013-04-27 03:57:00,
2013-04-26 23:58:00,50.8,45.8,30.10,South,179,0.0,0.0,83,0.00,,CLR,0.00,VWS V13.01,2013-04-27 03:58:00,
2013-04-26 23:59:00,50.7,45.7,30.10,South,171,0.0,0.0,83,0.00,,CLR,0.00,VWS V13.01,2013-04-27 03:59:00,